Wetterdaten: Sonntag, 01.11.2020
Datum Zeit Temp. Aussen Temp. o. S. Temp +5cm Feuchte Auss Luftdruck Regen Sonnenschein Regendauer Solar Windben Empfang
01.11.2020 00:00 14,0 C 12,8 C 11,7 C 97 % 1014,8 hPa 0,0 l/m 0 min 0 min 0 W/m 0,0 km/h (0 Bft) 100,00 %
01.11.2020 00:02 14,0 C 12,8 C 12,2 C 97 % 1014,8 hPa 0,0 l/m 0 min 0 min 0 W/m 0,0 km/h (0 Bft) 95,00 %
01.11.2020 00:04 14,0 C 12,8 C 12,2 C 97 % 1014,8 hPa 0,0 l/m 0 min 0 min 0 W/m 9,7 km/h (2 Bft) 100,00 %
01.11.2020 00:07 14,0 C 12,8 C 12,2 C 97 % 1014,9 hPa 0,0 l/m 0 min 0 min 0 W/m 6,4 km/h (2 Bft) 100,00 %
01.11.2020 00:08 14,0 C 12,8 C 12,2 C 97 % 1014,9 hPa 0,0 l/m 0 min 0 min 0 W/m 9,7 km/h (2 Bft) 100,00 %
01.11.2020 00:10 14,0 C 12,8 C 12,2 C 97 % 1014,8 hPa 0,0 l/m 0 min 0 min 0 W/m 19,3 km/h (3 Bft) 100,00 %
01.11.2020 00:12 14,0 C 12,8 C 12,2 C 97 % 1014,8 hPa 0,0 l/m 0 min 0 min 0 W/m 3,2 km/h (1 Bft) 100,00 %
01.11.2020 00:14 14,0 C 12,8 C 12,2 C 97 % 1014,8 hPa 0,0 l/m 0 min 0 min 0 W/m 6,4 km/h (2 Bft) 100,00 %
01.11.2020 00:16 14,0 C 12,8 C 12,2 C 97 % 1014,8 hPa 0,0 l/m 0 min 0 min 0 W/m 3,2 km/h (1 Bft) 95,74 %
01.11.2020 00:18 14,0 C 12,8 C 12,2 C 97 % 1014,8 hPa 0,0 l/m 0 min 0 min 0 W/m 3,2 km/h (1 Bft) 100,00 %
01.11.2020 00:20 14,0 C 12,8 C 11,7 C 97 % 1014,9 hPa 0,0 l/m 0 min 0 min 0 W/m 0,0 km/h (0 Bft) 100,00 %
01.11.2020 00:22 14,0 C 12,8 C 11,7 C 97 % 1014,9 hPa 0,0 l/m 0 min 0 min 0 W/m 0,0 km/h (0 Bft) 100,00 %
01.11.2020 00:24 14,0 C 12,8 C 11,7 C 97 % 1014,9 hPa 0,0 l/m 0 min 0 min 0 W/m 0,0 km/h (0 Bft) 100,00 %
01.11.2020 00:26 14,0 C 12,8 C 11,7 C 96 % 1014,8 hPa 0,0 l/m 0 min 0 min 0 W/m 0,0 km/h (0 Bft) 100,00 %
01.11.2020 00:28 14,0 C 12,8 C 11,7 C 96 % 1014,9 hPa 0,0 l/m 0 min 0 min 0 W/m 0,0 km/h (0 Bft) 100,00 %
01.11.2020 00:30 14,0 C 12,8 C 11,7 C 96 % 1014,8 hPa 0,0 l/m 0 min 0 min 0 W/m 0,0 km/h (0 Bft) 100,00 %
01.11.2020 00:32 14,0 C 12,8 C 11,7 C 96 % 1014,8 hPa 0,0 l/m 0 min 0 min 0 W/m 0,0 km/h (0 Bft) 100,00 %
01.11.2020 00:34 14,0 C 12,2 C 11,7 C 96 % 1014,8 hPa 0,0 l/m 0 min 0 min 0 W/m 3,2 km/h (1 Bft) 100,00 %
01.11.2020 00:36 14,0 C 12,2 C 11,7 C 96 % 1014,7 hPa 0,0 l/m 0 min 0 min 0 W/m 0,0 km/h (0 Bft) 100,00 %
01.11.2020 00:38 13,9 C 12,2 C 11,7 C 96 % 1014,7 hPa 0,0 l/m 0 min 0 min 0 W/m 0,0 km/h (0 Bft) 100,00 %
01.11.2020 00:40 13,9 C 12,2 C 11,7 C 96 % 1014,7 hPa 0,0 l/m 0 min 0 min 0 W/m 0,0 km/h (0 Bft) 100,00 %
01.11.2020 00:42 13,9 C 12,2 C 11,1 C 96 % 1014,8 hPa 0,0 l/m 0 min 0 min 0 W/m 0,0 km/h (0 Bft) 100,00 %
01.11.2020 00:44 13,8 C 12,2 C 11,1 C 96 % 1014,9 hPa 0,0 l/m 0 min 0 min 0 W/m 0,0 km/h (0 Bft) 97,87 %
01.11.2020 00:46 13,8 C 12,2 C 11,7 C 96 % 1015,0 hPa 0,0 l/m 0 min 0 min 0 W/m 0,0 km/h (0 Bft) 97,87 %
01.11.2020 00:48 13,8 C 12,2 C 11,7 C 96 % 1015,1 hPa 0,0 l/m 0 min 0 min 0 W/m 0,0 km/h (0 Bft) 100,00 %
01.11.2020 00:50 13,8 C 12,2 C 11,7 C 96 % 1015,2 hPa 0,0 l/m 0 min 0 min 0 W/m 0,0 km/h (0 Bft) 100,00 %
01.11.2020 00:52 13,7 C 12,2 C 11,7 C 96 % 1015,2 hPa 0,0 l/m 0 min 0 min 0 W/m 3,2 km/h (1 Bft) 97,87 %
01.11.2020 00:54 13,7 C 12,2 C 11,7 C 96 % 1015,1 hPa 0,0 l/m 0 min 0 min 0 W/m 6,4 km/h (2 Bft) 100,00 %
01.11.2020 00:56 13,6 C 12,2 C 11,7 C 96 % 1015,2 hPa 0,0 l/m 0 min 0 min 0 W/m 3,2 km/h (1 Bft) 100,00 %
01.11.2020 00:58 13,6 C 12,2 C 11,7 C 96 % 1015,3 hPa 0,0 l/m 0 min 0 min 0 W/m 3,2 km/h (1 Bft) 100,00 %
01.11.2020 01:00 13,6 C 12,2 C 11,7 C 96 % 1015,1 hPa 0,0 l/m 0 min 0 min 0 W/m 3,2 km/h (1 Bft) 97,83 %
01.11.2020 01:02 13,6 C 12,2 C 11,7 C 96 % 1015,1 hPa 0,0 l/m 0 min 0 min 0 W/m 0,0 km/h (0 Bft) 100,00 %
01.11.2020 01:04 13,6 C 12,2 C 11,1 C 96 % 1015,3 hPa 0,0 l/m 0 min 0 min 0 W/m 3,2 km/h (1 Bft) 100,00 %
01.11.2020 01:06 13,6 C 12,2 C 11,1 C 96 % 1015,3 hPa 0,0 l/m 0 min 0 min 0 W/m 0,0 km/h (0 Bft) 100,00 %
01.11.2020 01:08 13,5 C 12,2 C 11,1 C 96 % 1015,2 hPa 0,0 l/m 0 min 0 min 0 W/m 0,0 km/h (0 Bft) 100,00 %
01.11.2020 01:10 13,5 C 12,2 C 11,1 C 96 % 1015,2 hPa 0,0 l/m 0 min 0 min 0 W/m 0,0 km/h (0 Bft) 94,87 %
01.11.2020 01:12 13,5 C 11,7 C 11,1 C 96 % 1015,1 hPa 0,0 l/m 0 min 0 min 0 W/m 0,0 km/h (0 Bft) 97,87 %
01.11.2020 01:14 13,5 C 11,7 C 11,1 C 96 % 1015,2 hPa 0,0 l/m 0 min 0 min 0 W/m 0,0 km/h (0 Bft) 95,74 %
01.11.2020 01:16 13,5 C 11,7 C 11,1 C 96 % 1015,2 hPa 0,0 l/m 0 min 0 min 0 W/m 3,2 km/h (1 Bft) 95,74 %
01.11.2020 01:18 13,4 C 12,2 C 11,1 C 96 % 1015,2 hPa 0,0 l/m 0 min 0 min 0 W/m 3,2 km/h (1 Bft) 91,49 %
01.11.2020 01:20 13,4 C 12,2 C 11,1 C 96 % 1015,3 hPa 0,0 l/m 0 min 0 min 0 W/m 3,2 km/h (1 Bft) 95,65 %
01.11.2020 01:22 13,4 C 12,2 C 11,1 C 96 % 1015,3 hPa 0,0 l/m 0 min 0 min 0 W/m 6,4 km/h (2 Bft) 95,74 %
01.11.2020 01:24 13,4 C 12,2 C 11,1 C 96 % 1015,4 hPa 0,0 l/m 0 min 0 min 0 W/m 3,2 km/h (1 Bft) 95,74 %
01.11.2020 01:26 13,3 C 12,2 C 11,1 C 96 % 1015,4 hPa 0,0 l/m 0 min 0 min 0 W/m 6,4 km/h (2 Bft) 95,74 %
01.11.2020 01:28 13,3 C 12,2 C 11,1 C 96 % 1015,4 hPa 0,0 l/m 0 min 0 min 0 W/m 3,2 km/h (1 Bft) 97,87 %
01.11.2020 01:30 13,3 C 12,2 C 11,1 C 96 % 1015,3 hPa 0,0 l/m 0 min 0 min 0 W/m 6,4 km/h (2 Bft) 93,48 %
01.11.2020 01:32 13,2 C 11,7 C 11,1 C 96 % 1015,5 hPa 0,0 l/m 0 min 0 min 0 W/m 16,1 km/h (3 Bft) 95,74 %
01.11.2020 01:34 13,1 C 11,7 C 11,1 C 95 % 1015,4 hPa 0,0 l/m 0 min 0 min 0 W/m 12,9 km/h (3 Bft) 95,74 %
01.11.2020 01:36 13,0 C 11,7 C 11,1 C 95 % 1015,4 hPa 0,0 l/m 0 min 0 min 0 W/m 6,4 km/h (2 Bft) 95,74 %
01.11.2020 01:38 13,0 C 11,7 C 11,1 C 95 % 1015,5 hPa 0,0 l/m 0 min 0 min 0 W/m 3,2 km/h (1 Bft) 95,74 %
01.11.2020 01:40 13,0 C 11,7 C 11,1 C 95 % 1015,4 hPa 0,0 l/m 0 min 0 min 0 W/m 0,0 km/h (0 Bft) 95,74 %
01.11.2020 01:42 12,9 C 11,7 C 10,6 C 95 % 1015,4 hPa 0,0 l/m 0 min 0 min 0 W/m 0,0 km/h (0 Bft) 95,65 %
01.11.2020 01:44 12,9 C 11,7 C 10,6 C 95 % 1015,4 hPa 0,0 l/m 0 min 0 min 0 W/m 3,2 km/h (1 Bft) 93,62 %
01.11.2020 01:46 12,9 C 11,7 C 10,6 C 95 % 1015,6 hPa 0,0 l/m 0 min 0 min 0 W/m 3,2 km/h (1 Bft) 95,74 %
01.11.2020 01:48 12,8 C 11,7 C 10,6 C 95 % 1015,7 hPa 0,0 l/m 0 min 0 min 0 W/m 3,2 km/h (1 Bft) 93,62 %
01.11.2020 01:50 12,8 C 11,7 C 10,6 C 94 % 1015,6 hPa 0,0 l/m 0 min 0 min 0 W/m 3,2 km/h (1 Bft) 95,74 %
01.11.2020 01:52 12,8 C 11,7 C 10,6 C 94 % 1015,5 hPa 0,0 l/m 0 min 0 min 0 W/m 0,0 km/h (0 Bft) 95,74 %
01.11.2020 01:54 12,8 C 11,7 C 10,6 C 94 % 1015,5 hPa 0,0 l/m 0 min 0 min 0 W/m 0,0 km/h (0 Bft) 95,65 %
01.11.2020 01:56 12,7 C 11,1 C 10,6 C 94 % 1015,4 hPa 0,0 l/m 0 min 0 min 0 W/m 0,0 km/h (0 Bft) 93,62 %
01.11.2020 01:58 12,6 C 11,1 C 10,6 C 94 % 1015,4 hPa 0,0 l/m 0 min 0 min 0 W/m 0,0 km/h (0 Bft) 95,74 %
01.11.2020 02:00 12,6 C 11,7 C 10,6 C 94 % 1015,5 hPa 0,0 l/m 0 min 0 min 0 W/m 0,0 km/h (0 Bft) 100,00 %
01.11.2020 02:02 12,6 C 11,7 C 10,0 C 94 % 1015,5 hPa 0,0 l/m 0 min 0 min 0 W/m 0,0 km/h (0 Bft) 98,11 %
01.11.2020 02:04 12,6 C 11,7 C 10,0 C 94 % 1015,5 hPa 0,0 l/m 0 min 0 min 0 W/m 0,0 km/h (0 Bft) 97,87 %
01.11.2020 02:06 12,5 C 11,7 C 10,0 C 93 % 1015,4 hPa 0,0 l/m 0 min 0 min 0 W/m 0,0 km/h (0 Bft) 100,00 %
01.11.2020 02:08 12,5 C 11,7 C 10,0 C 93 % 1015,4 hPa 0,0 l/m 0 min 0 min 0 W/m 0,0 km/h (0 Bft) 100,00 %
01.11.2020 02:10 12,5 C 11,7 C 10,0 C 93 % 1015,3 hPa 0,0 l/m 0 min 0 min 0 W/m 0,0 km/h (0 Bft) 97,83 %
01.11.2020 02:12 12,5 C 11,7 C 10,0 C 93 % 1015,3 hPa 0,0 l/m 0 min 0 min 0 W/m 0,0 km/h (0 Bft) 97,87 %
01.11.2020 02:14 12,5 C 11,7 C 10,0 C 93 % 1015,3 hPa 0,0 l/m 0 min 0 min 0 W/m 0,0 km/h (0 Bft) 97,87 %
01.11.2020 02:16 12,4 C 11,7 C 10,0 C 93 % 1015,3 hPa 0,0 l/m 0 min 0 min 0 W/m 0,0 km/h (0 Bft) 97,87 %
01.11.2020 02:18 12,4 C 11,7 C 10,0 C 93 % 1015,4 hPa 0,0 l/m 0 min 0 min 0 W/m 0,0 km/h (0 Bft) 95,74 %
01.11.2020 02:20 12,4 C 11,7 C 10,0 C 93 % 1015,3 hPa 0,0 l/m 0 min 0 min 0 W/m 0,0 km/h (0 Bft) 97,87 %
01.11.2020 02:22 12,4 C 11,1 C 10,0 C 93 % 1015,3 hPa 0,0 l/m 0 min 0 min 0 W/m 0,0 km/h (0 Bft) 97,83 %
01.11.2020 02:24 12,4 C 11,1 C 10,0 C 93 % 1015,3 hPa 0,0 l/m 0 min 0 min 0 W/m 0,0 km/h (0 Bft) 97,87 %
01.11.2020 02:26 12,4 C 11,1 C 10,0 C 93 % 1015,3 hPa 0,0 l/m 0 min 0 min 0 W/m 0,0 km/h (0 Bft) 95,74 %
01.11.2020 02:28 12,3 C 11,1 C 10,0 C 93 % 1015,3 hPa 0,0 l/m 0 min 0 min 0 W/m 0,0 km/h (0 Bft) 97,87 %
01.11.2020 02:30 12,3 C 11,1 C 10,0 C 93 % 1015,4 hPa 0,0 l/m 0 min 0 min 0 W/m 0,0 km/h (0 Bft) 97,87 %
01.11.2020 02:32 12,3 C 11,7 C 10,0 C 93 % 1015,3 hPa 0,0 l/m 0 min 0 min 0 W/m 0,0 km/h (0 Bft) 95,65 %
01.11.2020 02:34 12,3 C 11,7 C 10,0 C 93 % 1015,4 hPa 0,0 l/m 0 min 0 min 0 W/m 0,0 km/h (0 Bft) 95,74 %
01.11.2020 02:36 12,3 C 11,7 C 10,0 C 93 % 1015,4 hPa 0,0 l/m 0 min 0 min 0 W/m 0,0 km/h (0 Bft) 95,74 %
01.11.2020 02:38 12,3 C 11,7 C 10,0 C 93 % 1015,4 hPa 0,0 l/m 0 min 0 min 0 W/m 0,0 km/h (0 Bft) 97,87 %
01.11.2020 02:40 12,2 C 11,7 C 10,0 C 93 % 1015,4 hPa 0,0 l/m 0 min 0 min 0 W/m 0,0 km/h (0 Bft) 97,87 %
01.11.2020 02:42 12,3 C 11,7 C 10,0 C 93 % 1015,5 hPa 0,0 l/m 0 min 0 min 0 W/m 0,0 km/h (0 Bft) 95,74 %
01.11.2020 02:44 12,2 C 11,7 C 10,0 C 93 % 1015,5 hPa 0,0 l/m 0 min 0 min 0 W/m 0,0 km/h (0 Bft) 95,65 %
01.11.2020 02:46 12,2 C 11,7 C 10,0 C 93 % 1015,5 hPa 0,0 l/m 0 min 0 min 0 W/m 0,0 km/h (0 Bft) 97,87 %
01.11.2020 02:48 12,2 C 11,7 C 10,0 C 93 % 1015,5 hPa 0,0 l/m 0 min 0 min 0 W/m 0,0 km/h (0 Bft) 95,74 %
01.11.2020 02:50 12,1 C 11,7 C 10,0 C 93 % 1015,5 hPa 0,0 l/m 0 min 0 min 0 W/m 0,0 km/h (0 Bft) 95,74 %
01.11.2020 02:52 12,1 C 11,7 C 10,0 C 93 % 1015,6 hPa 0,0 l/m 0 min 0 min 0 W/m 3,2 km/h (1 Bft) 95,74 %
01.11.2020 02:54 12,1 C 11,7 C 10,0 C 93 % 1015,7 hPa 0,0 l/m 0 min 0 min 0 W/m 0,0 km/h (0 Bft) 97,87 %
01.11.2020 02:56 12,1 C 11,7 C 10,0 C 93 % 1015,7 hPa 0,0 l/m 0 min 0 min 0 W/m 0,0 km/h (0 Bft) 95,74 %
01.11.2020 02:58 12,1 C 11,7 C 10,0 C 93 % 1015,7 hPa 0,0 l/m 0 min 0 min 0 W/m 0,0 km/h (0 Bft) 97,83 %
01.11.2020 03:00 12,1 C 11,7 C 10,0 C 93 % 1015,6 hPa 0,0 l/m 0 min 0 min 0 W/m 0,0 km/h (0 Bft) 97,87 %
01.11.2020 03:02 12,1 C 11,7 C 10,0 C 93 % 1015,5 hPa 0,0 l/m 0 min 0 min 0 W/m 0,0 km/h (0 Bft) 97,87 %
01.11.2020 03:04 12,1 C 11,7 C 10,0 C 93 % 1015,5 hPa 0,0 l/m 0 min 0 min 0 W/m 0,0 km/h (0 Bft) 97,87 %
01.11.2020 03:06 12,1 C 11,7 C 10,0 C 93 % 1015,6 hPa 0,0 l/m 0 min 0 min 0 W/m 0,0 km/h (0 Bft) 97,87 %
01.11.2020 03:08 12,1 C 11,7 C 10,0 C 93 % 1015,5 hPa 0,0 l/m 0 min 0 min 0 W/m 0,0 km/h (0 Bft) 95,65 %
01.11.2020 03:10 12,1 C 11,7 C 10,0 C 93 % 1015,5 hPa 0,0 l/m 0 min 0 min 0 W/m 0,0 km/h (0 Bft) 97,87 %
01.11.2020 03:12 12,1 C 11,7 C 10,0 C 93 % 1015,6 hPa 0,0 l/m 0 min 0 min 0 W/m 0,0 km/h (0 Bft) 97,87 %
01.11.2020 03:14 12,1 C 11,7 C 10,0 C 93 % 1015,6 hPa 0,0 l/m 0 min 0 min 0 W/m 0,0 km/h (0 Bft) 97,87 %
01.11.2020 03:16 12,1 C 11,7 C 10,0 C 93 % 1015,5 hPa 0,0 l/m 0 min 0 min 0 W/m 0,0 km/h (0 Bft) 97,87 %
01.11.2020 03:18 12,1 C 11,7 C 10,0 C 93 % 1015,5 hPa 0,0 l/m 0 min 0 min 0 W/m 0,0 km/h (0 Bft) 97,87 %
01.11.2020 03:20 12,1 C 11,1 C 10,0 C 93 % 1015,4 hPa 0,0 l/m 0 min 0 min 0 W/m 0,0 km/h (0 Bft) 97,83 %
01.11.2020 03:22 12,1 C 11,1 C 10,0 C 93 % 1015,4 hPa 0,0 l/m 0 min 0 min 0 W/m 0,0 km/h (0 Bft) 97,92 %
01.11.2020 03:24 12,1 C 11,1 C 10,0 C 93 % 1015,3 hPa 0,0 l/m 0 min 0 min 0 W/m 0,0 km/h (0 Bft) 100,00 %
01.11.2020 03:26 12,1 C 11,1 C 10,0 C 93 % 1015,3 hPa 0,0 l/m 0 min 0 min 0 W/m 3,2 km/h (1 Bft) 97,87 %
01.11.2020 03:28 12,1 C 11,1 C 10,0 C 93 % 1015,2 hPa 0,0 l/m 0 min 0 min 0 W/m 3,2 km/h (1 Bft) 95,74 %
01.11.2020 03:30 12,1 C 11,7 C 10,0 C 93 % 1015,2 hPa 0,0 l/m 0 min 0 min 0 W/m 0,0 km/h (0 Bft) 100,00 %
01.11.2020 03:32 12,1 C 11,7 C 10,0 C 93 % 1015,1 hPa 0,0 l/m 0 min 0 min 0 W/m 0,0 km/h (0 Bft) 100,00 %
01.11.2020 03:34 12,0 C 11,1 C 10,0 C 93 % 1015,1 hPa 0,0 l/m 0 min 0 min 0 W/m 3,2 km/h (1 Bft) 100,00 %
01.11.2020 03:36 12,0 C 11,1 C 10,0 C 93 % 1015,0 hPa 0,0 l/m 0 min 0 min 0 W/m 0,0 km/h (0 Bft) 95,74 %
01.11.2020 03:38 12,0 C 11,1 C 10,0 C 93 % 1015,0 hPa 0,0 l/m 0 min 0 min 0 W/m 0,0 km/h (0 Bft) 100,00 %
01.11.2020 03:40 12,0 C 11,1 C 10,0 C 93 % 1014,9 hPa 0,0 l/m 0 min 0 min 0 W/m 0,0 km/h (0 Bft) 97,87 %
01.11.2020 03:42 12,0 C 11,1 C 10,0 C 93 % 1014,9 hPa 0,0 l/m 0 min 0 min 0 W/m 0,0 km/h (0 Bft) 100,00 %
01.11.2020 03:44 12,0 C 11,1 C 10,0 C 93 % 1014,9 hPa 0,0 l/m 0 min 0 min 0 W/m 0,0 km/h (0 Bft) 97,87 %
01.11.2020 03:46 12,0 C 11,1 C 10,0 C 93 % 1014,8 hPa 0,0 l/m 0 min 0 min 0 W/m 0,0 km/h (0 Bft) 95,74 %
01.11.2020 03:48 12,0 C 11,1 C 10,0 C 93 % 1014,8 hPa 0,0 l/m 0 min 0 min 0 W/m 0,0 km/h (0 Bft) 97,87 %
01.11.2020 03:50 12,0 C 11,1 C 9,5 C 92 % 1014,8 hPa 0,0 l/m 0 min 0 min 0 W/m 0,0 km/h (0 Bft) 97,87 %
01.11.2020 03:52 12,0 C 11,1 C 10,0 C 92 % 1014,7 hPa 0,0 l/m 0 min 0 min 0 W/m 0,0 km/h (0 Bft) 97,87 %
01.11.2020 03:54 12,0 C 11,1 C 9,5 C 92 % 1014,8 hPa 0,0 l/m 0 min 0 min 0 W/m 0,0 km/h (0 Bft) 97,83 %
01.11.2020 03:56 11,9 C 11,7 C 9,5 C 92 % 1014,7 hPa 0,0 l/m 0 min 0 min 0 W/m 0,0 km/h (0 Bft) 97,87 %
01.11.2020 03:58 11,9 C 11,7 C 10,0 C 92 % 1014,7 hPa 0,0 l/m 0 min 0 min 0 W/m 0,0 km/h (0 Bft) 95,45 %
01.11.2020 04:00 11,9 C 11,1 C 10,0 C 92 % 1014,7 hPa 0,0 l/m 0 min 0 min 0 W/m 0,0 km/h (0 Bft) 97,83 %
01.11.2020 04:02 11,9 C 11,1 C 9,5 C 92 % 1014,7 hPa 0,0 l/m 0 min 0 min 0 W/m 0,0 km/h (0 Bft) 96,88 %
01.11.2020 04:04 11,9 C 11,1 C 9,5 C 92 % 1014,6 hPa 0,0 l/m 0 min 0 min 0 W/m 0,0 km/h (0 Bft) 97,83 %
01.11.2020 04:06 11,9 C 11,1 C 9,5 C 92 % 1014,7 hPa 0,0 l/m 0 min 0 min 0 W/m 0,0 km/h (0 Bft) 97,87 %
01.11.2020 04:08 11,9 C 11,1 C 9,5 C 92 % 1014,6 hPa 0,0 l/m 0 min 0 min 0 W/m 0,0 km/h (0 Bft) 97,87 %
01.11.2020 04:10 11,9 C 11,1 C 9,5 C 92 % 1014,6 hPa 0,0 l/m 0 min 0 min 0 W/m 0,0 km/h (0 Bft) 97,87 %
01.11.2020 04:12 11,9 C 11,1 C 9,5 C 92 % 1014,6 hPa 0,0 l/m 0 min 0 min 0 W/m 0,0 km/h (0 Bft) 95,74 %
01.11.2020 04:14 11,9 C 11,1 C 9,5 C 92 % 1014,7 hPa 0,0 l/m 0 min 0 min 0 W/m 0,0 km/h (0 Bft) 95,74 %
01.11.2020 04:16 11,8 C 11,1 C 9,5 C 92 % 1014,7 hPa 0,0 l/m 0 min 0 min 0 W/m 0,0 km/h (0 Bft) 95,65 %
01.11.2020 04:18 11,8 C 11,1 C 9,5 C 92 % 1014,7 hPa 0,0 l/m 0 min 0 min 0 W/m 0,0 km/h (0 Bft) 95,74 %
01.11.2020 04:20 11,8 C 11,1 C 9,5 C 92 % 1014,8 hPa 0,0 l/m 0 min 0 min 0 W/m 0,0 km/h (0 Bft) 91,49 %
01.11.2020 04:22 11,8 C 11,1 C 9,5 C 92 % 1014,7 hPa 0,0 l/m 0 min 0 min 0 W/m 0,0 km/h (0 Bft) 95,74 %
01.11.2020 04:24 11,8 C 11,1 C 9,5 C 92 % 1014,7 hPa 0,0 l/m 0 min 0 min 0 W/m 0,0 km/h (0 Bft) 97,87 %
01.11.2020 04:26 11,8 C 11,1 C 10,0 C 92 % 1014,8 hPa 0,0 l/m 0 min 0 min 0 W/m 0,0 km/h (0 Bft) 97,87 %
01.11.2020 04:28 11,8 C 11,1 C 9,5 C 92 % 1014,9 hPa 0,0 l/m 0 min 0 min 0 W/m 0,0 km/h (0 Bft) 97,83 %
01.11.2020 04:30 11,8 C 11,1 C 9,5 C 92 % 1014,9 hPa 0,0 l/m 0 min 0 min 0 W/m 0,0 km/h (0 Bft) 97,87 %
01.11.2020 04:32 11,8 C 11,1 C 9,5 C 92 % 1014,8 hPa 0,0 l/m 0 min 0 min 0 W/m 0,0 km/h (0 Bft) 97,92 %
01.11.2020 04:34 11,8 C 11,1 C 9,5 C 92 % 1014,9 hPa 0,0 l/m 0 min 0 min 0 W/m 0,0 km/h (0 Bft) 97,87 %
01.11.2020 04:36 11,8 C 11,1 C 9,5 C 92 % 1014,9 hPa 0,0 l/m 0 min 0 min 0 W/m 0,0 km/h (0 Bft) 93,62 %
01.11.2020 04:38 11,8 C 11,1 C 9,5 C 92 % 1014,9 hPa 0,0 l/m 0 min 0 min 0 W/m 0,0 km/h (0 Bft) 97,87 %
01.11.2020 04:40 11,8 C 11,1 C 9,5 C 92 % 1014,9 hPa 0,0 l/m 0 min 0 min 0 W/m 0,0 km/h (0 Bft) 97,83 %
01.11.2020 04:42 11,8 C 11,1 C 9,5 C 92 % 1014,7 hPa 0,0 l/m 0 min 0 min 0 W/m 3,2 km/h (1 Bft) 97,87 %
01.11.2020 04:44 11,8 C 11,1 C 9,5 C 92 % 1014,7 hPa 0,0 l/m 0 min 0 min 0 W/m 0,0 km/h (0 Bft) 97,87 %
01.11.2020 04:46 11,8 C 11,1 C 9,5 C 92 % 1014,7 hPa 0,0 l/m 0 min 0 min 0 W/m 0,0 km/h (0 Bft) 100,00 %
01.11.2020 04:48 11,8 C 11,1 C 9,5 C 92 % 1014,6 hPa 0,0 l/m 0 min 0 min 0 W/m 0,0 km/h (0 Bft) 97,87 %
01.11.2020 04:50 11,8 C 11,1 C 9,5 C 92 % 1014,7 hPa 0,0 l/m 0 min 0 min 0 W/m 0,0 km/h (0 Bft) 97,87 %
01.11.2020 04:52 11,8 C 11,1 C 9,5 C 92 % 1014,6 hPa 0,0 l/m 0 min 0 min 0 W/m 0,0 km/h (0 Bft) 97,83 %
01.11.2020 04:54 11,8 C 11,1 C 9,5 C 92 % 1014,7 hPa 0,0 l/m 0 min 0 min 0 W/m 0,0 km/h (0 Bft) 95,74 %
01.11.2020 04:56 11,8 C 11,1 C 9,5 C 92 % 1014,7 hPa 0,0 l/m 0 min 0 min 0 W/m 3,2 km/h (1 Bft) 100,00 %
01.11.2020 04:58 11,8 C 11,1 C 9,5 C 92 % 1014,6 hPa 0,0 l/m 0 min 0 min 0 W/m 0,0 km/h (0 Bft) 100,00 %
01.11.2020 05:00 11,8 C 11,1 C 9,5 C 92 % 1014,7 hPa 0,0 l/m 0 min 0 min 0 W/m 0,0 km/h (0 Bft) 97,87 %
01.11.2020 05:02 11,8 C 11,1 C 9,5 C 92 % 1014,8 hPa 0,0 l/m 0 min 0 min 0 W/m 3,2 km/h (1 Bft) 100,00 %
01.11.2020 05:04 11,8 C 11,1 C 9,5 C 92 % 1014,8 hPa 0,0 l/m 0 min 0 min 0 W/m 0,0 km/h (0 Bft) 100,00 %
01.11.2020 05:06 11,8 C 11,1 C 9,5 C 92 % 1014,7 hPa 0,0 l/m 0 min 0 min 0 W/m 0,0 km/h (0 Bft) 100,00 %
01.11.2020 05:08 11,8 C 11,1 C 9,5 C 92 % 1014,7 hPa 0,0 l/m 0 min 0 min 0 W/m 0,0 km/h (0 Bft) 97,87 %
01.11.2020 05:10 11,8 C 11,1 C 9,5 C 92 % 1014,7 hPa 0,0 l/m 0 min 0 min 0 W/m 3,2 km/h (1 Bft) 95,74 %
01.11.2020 05:12 11,8 C 11,1 C 9,5 C 92 % 1014,8 hPa 0,0 l/m 0 min 0 min 0 W/m 0,0 km/h (0 Bft) 100,00 %
01.11.2020 05:14 11,8 C 11,1 C 9,5 C 92 % 1014,7 hPa 0,0 l/m 0 min 0 min 0 W/m 0,0 km/h (0 Bft) 100,00 %
01.11.2020 05:16 11,7 C 10,6 C 9,5 C 92 % 1014,7 hPa 0,0 l/m 0 min 0 min 0 W/m 0,0 km/h (0 Bft) 100,00 %
01.11.2020 05:18 11,7 C 11,1 C 9,5 C 92 % 1014,7 hPa 0,0 l/m 0 min 0 min 0 W/m 3,2 km/h (1 Bft) 100,00 %
01.11.2020 05:20 11,7 C 11,1 C 9,5 C 92 % 1014,7 hPa 0,0 l/m 0 min 0 min 0 W/m 6,4 km/h (2 Bft) 97,87 %
01.11.2020 05:22 11,7 C 11,1 C 9,5 C 92 % 1014,7 hPa 0,0 l/m 0 min 0 min 0 W/m 0,0 km/h (0 Bft) 100,00 %
01.11.2020 05:24 11,7 C 11,1 C 9,5 C 92 % 1014,7 hPa 0,0 l/m 0 min 0 min 0 W/m 0,0 km/h (0 Bft) 100,00 %
01.11.2020 05:26 11,7 C 10,6 C 9,5 C 92 % 1014,6 hPa 0,0 l/m 0 min 0 min 0 W/m 0,0 km/h (0 Bft) 100,00 %
01.11.2020 05:28 11,7 C 10,6 C 9,5 C 92 % 1014,6 hPa 0,0 l/m 0 min 0 min 0 W/m 3,2 km/h (1 Bft) 100,00 %
01.11.2020 05:30 11,7 C 10,6 C 9,5 C 92 % 1014,6 hPa 0,0 l/m 0 min 0 min 0 W/m 0,0 km/h (0 Bft) 100,00 %
01.11.2020 05:32 11,6 C 11,1 C 9,5 C 92 % 1014,6 hPa 0,0 l/m 0 min 0 min 0 W/m 3,2 km/h (1 Bft) 95,74 %
01.11.2020 05:34 11,6 C 11,1 C 9,5 C 92 % 1014,6 hPa 0,0 l/m 0 min 0 min 0 W/m 3,2 km/h (1 Bft) 100,00 %
01.11.2020 05:36 11,6 C 11,1 C 9,5 C 92 % 1014,6 hPa 0,0 l/m 0 min 0 min 0 W/m 0,0 km/h (0 Bft) 100,00 %
01.11.2020 05:38 11,6 C 11,1 C 9,5 C 92 % 1014,5 hPa 0,0 l/m 0 min 0 min 0 W/m 0,0 km/h (0 Bft) 100,00 %
01.11.2020 05:40 11,6 C 11,1 C 9,5 C 92 % 1014,5 hPa 0,0 l/m 0 min 0 min 0 W/m 0,0 km/h (0 Bft) 100,00 %
01.11.2020 05:42 11,6 C 10,6 C 9,5 C 92 % 1014,5 hPa 0,0 l/m 0 min 0 min 0 W/m 0,0 km/h (0 Bft) 100,00 %
01.11.2020 05:44 11,6 C 11,1 C 9,5 C 92 % 1014,5 hPa 0,0 l/m 0 min 0 min 0 W/m 0,0 km/h (0 Bft) 100,00 %
01.11.2020 05:46 11,6 C 11,1 C 9,5 C 92 % 1014,4 hPa 0,0 l/m 0 min 0 min 0 W/m 0,0 km/h (0 Bft) 100,00 %
01.11.2020 05:48 11,6 C 11,1 C 9,5 C 92 % 1014,5 hPa 0,0 l/m 0 min 0 min 0 W/m 0,0 km/h (0 Bft) 100,00 %
01.11.2020 05:50 11,6 C 11,1 C 9,5 C 92 % 1014,5 hPa 0,0 l/m 0 min 0 min 0 W/m 0,0 km/h (0 Bft) 100,00 %
01.11.2020 05:52 11,6 C 11,1 C 9,5 C 92 % 1014,5 hPa 0,0 l/m 0 min 0 min 0 W/m 0,0 km/h (0 Bft) 100,00 %
01.11.2020 05:54 11,6 C 11,1 C 9,5 C 92 % 1014,5 hPa 0,0 l/m 0 min 0 min 0 W/m 0,0 km/h (0 Bft) 95,74 %
01.11.2020 05:56 11,6 C 11,1 C 9,5 C 92 % 1014,4 hPa 0,0 l/m 0 min 0 min 0 W/m 0,0 km/h (0 Bft) 100,00 %
01.11.2020 05:58 11,6 C 11,1 C 9,5 C 92 % 1014,5 hPa 0,0 l/m 0 min 0 min 0 W/m 0,0 km/h (0 Bft) 100,00 %
01.11.2020 06:00 11,6 C 11,1 C 9,5 C 92 % 1014,4 hPa 0,0 l/m 0 min 0 min 0 W/m 6,4 km/h (2 Bft) 100,00 %
01.11.2020 06:02 11,6 C 11,1 C 9,5 C 92 % 1014,4 hPa 0,0 l/m 0 min 0 min 0 W/m 0,0 km/h (0 Bft) 97,83 %
01.11.2020 06:04 11,6 C 11,1 C 9,5 C 92 % 1014,4 hPa 0,0 l/m 0 min 0 min 0 W/m 3,2 km/h (1 Bft) 97,87 %
01.11.2020 06:08 11,6 C 11,1 C 9,5 C 92 % 1014,4 hPa 0,0 l/m 0 min 0 min 0 W/m 0,0 km/h (0 Bft) 100,00 %
01.11.2020 06:10 11,6 C 11,1 C 9,5 C 92 % 1014,3 hPa 0,0 l/m 0 min 0 min 0 W/m 0,0 km/h (0 Bft) 97,87 %
01.11.2020 06:12 11,6 C 11,1 C 9,5 C 92 % 1014,4 hPa 0,0 l/m 0 min 0 min 0 W/m 0,0 km/h (0 Bft) 97,83 %
01.11.2020 06:14 11,6 C 11,1 C 9,5 C 93 % 1014,4 hPa 0,0 l/m 0 min 0 min 0 W/m 0,0 km/h (0 Bft) 97,87 %
01.11.2020 06:16 11,6 C 11,1 C 10,0 C 93 % 1014,4 hPa 0,0 l/m 0 min 0 min 0 W/m 0,0 km/h (0 Bft) 97,87 %
01.11.2020 06:18 11,6 C 11,1 C 10,0 C 93 % 1014,3 hPa 0,0 l/m 0 min 0 min 0 W/m 0,0 km/h (0 Bft) 97,87 %
01.11.2020 06:20 11,6 C 11,1 C 9,5 C 93 % 1014,3 hPa 0,0 l/m 0 min 0 min 0 W/m 6,4 km/h (2 Bft) 97,87 %
01.11.2020 06:22 11,6 C 11,1 C 10,0 C 93 % 1014,3 hPa 0,0 l/m 0 min 0 min 0 W/m 3,2 km/h (1 Bft) 97,87 %
01.11.2020 06:24 11,6 C 10,6 C 10,0 C 93 % 1014,2 hPa 0,0 l/m 0 min 0 min 0 W/m 0,0 km/h (0 Bft) 95,65 %
01.11.2020 06:26 11,6 C 10,6 C 10,0 C 93 % 1014,2 hPa 0,0 l/m 0 min 0 min 0 W/m 0,0 km/h (0 Bft) 95,74 %
01.11.2020 06:28 11,6 C 10,6 C 10,0 C 93 % 1014,2 hPa 0,0 l/m 0 min 0 min 0 W/m 0,0 km/h (0 Bft) 95,74 %
01.11.2020 06:30 11,6 C 10,6 C 10,0 C 93 % 1014,2 hPa 0,0 l/m 0 min 0 min 0 W/m 0,0 km/h (0 Bft) 95,74 %
01.11.2020 06:32 11,6 C 10,6 C 10,0 C 93 % 1014,2 hPa 0,0 l/m 0 min 0 min 0 W/m 0,0 km/h (0 Bft) 93,75 %
01.11.2020 06:34 11,6 C 10,6 C 10,0 C 93 % 1014,2 hPa 0,0 l/m 0 min 0 min 0 W/m 0,0 km/h (0 Bft) 97,87 %
01.11.2020 06:36 11,6 C 10,6 C 9,5 C 93 % 1014,2 hPa 0,0 l/m 0 min 2 min 0 W/m 0,0 km/h (0 Bft) 95,65 %
01.11.2020 06:38 11,7 C 10,6 C 10,0 C 93 % 1014,2 hPa 0,0 l/m 0 min 2 min 0 W/m 0,0 km/h (0 Bft) 93,62 %
01.11.2020 06:40 11,6 C 10,6 C 9,5 C 93 % 1014,2 hPa 0,0 l/m 0 min 0 min 0 W/m 3,2 km/h (1 Bft) 95,74 %
01.11.2020 06:42 11,7 C 10,6 C 9,5 C 93 % 1014,1 hPa 0,0 l/m 0 min 2 min 0 W/m 0,0 km/h (0 Bft) 93,62 %
01.11.2020 06:44 11,7 C 10,6 C 9,5 C 93 % 1014,1 hPa 0,0 l/m 0 min 2 min 0 W/m 0,0 km/h (0 Bft) 95,74 %
01.11.2020 06:46 11,6 C 10,6 C 9,5 C 93 % 1014,2 hPa 0,0 l/m 0 min 0 min 0 W/m 3,2 km/h (1 Bft) 95,74 %
01.11.2020 06:48 11,7 C 10,6 C 9,5 C 93 % 1014,2 hPa 0,0 l/m 0 min 0 min 0 W/m 0,0 km/h (0 Bft) 95,65 %
01.11.2020 06:50 11,7 C 10,6 C 9,5 C 94 % 1014,1 hPa 0,0 l/m 0 min 0 min 0 W/m 0,0 km/h (0 Bft) 95,74 %
01.11.2020 06:52 11,7 C 10,6 C 9,5 C 94 % 1014,0 hPa 0,0 l/m 0 min 0 min 0 W/m 0,0 km/h (0 Bft) 95,74 %
01.11.2020 06:54 11,7 C 10,6 C 9,5 C 94 % 1014,0 hPa 0,0 l/m 0 min 0 min 0 W/m 3,2 km/h (1 Bft) 97,87 %
01.11.2020 06:56 11,7 C 10,6 C 9,5 C 94 % 1013,9 hPa 0,0 l/m 0 min 0 min 0 W/m 0,0 km/h (0 Bft) 97,87 %
01.11.2020 06:58 11,7 C 10,6 C 9,5 C 94 % 1014,0 hPa 0,0 l/m 0 min 0 min 0 W/m 0,0 km/h (0 Bft) 95,65 %
01.11.2020 07:00 11,7 C 10,6 C 9,5 C 94 % 1014,0 hPa 0,0 l/m 0 min 0 min 0 W/m 0,0 km/h (0 Bft) 97,87 %
01.11.2020 07:02 11,7 C 10,6 C 9,5 C 94 % 1014,0 hPa 0,0 l/m 0 min 0 min 0 W/m 0,0 km/h (0 Bft) 93,62 %
01.11.2020 07:04 11,7 C 10,6 C 9,5 C 94 % 1014,0 hPa 0,0 l/m 0 min 0 min 0 W/m 0,0 km/h (0 Bft) 91,49 %
01.11.2020 07:06 11,7 C 10,6 C 10,0 C 94 % 1014,0 hPa 0,0 l/m 0 min 0 min 0 W/m 0,0 km/h (0 Bft) 93,62 %
01.11.2020 07:08 11,7 C 10,6 C 10,0 C 94 % 1013,9 hPa 0,0 l/m 0 min 0 min 0 W/m 0,0 km/h (0 Bft) 95,74 %
01.11.2020 07:10 11,7 C 10,6 C 9,5 C 94 % 1013,9 hPa 0,0 l/m 0 min 0 min 0 W/m 3,2 km/h (1 Bft) 95,74 %
01.11.2020 07:12 11,7 C 10,6 C 9,5 C 94 % 1014,0 hPa 0,0 l/m 0 min 0 min 0 W/m 3,2 km/h (1 Bft) 95,65 %
01.11.2020 07:14 11,7 C 10,6 C 9,5 C 94 % 1014,0 hPa 0,0 l/m 0 min 0 min 0 W/m 0,0 km/h (0 Bft) 93,62 %
01.11.2020 07:16 11,7 C 10,6 C 9,5 C 94 % 1013,9 hPa 0,0 l/m 0 min 0 min 0 W/m 3,2 km/h (1 Bft) 95,74 %
01.11.2020 07:18 11,7 C 10,6 C 9,5 C 94 % 1013,9 hPa 0,0 l/m 0 min 0 min 0 W/m 0,0 km/h (0 Bft) 95,74 %
01.11.2020 07:20 11,7 C 10,6 C 9,5 C 94 % 1013,7 hPa 0,0 l/m 0 min 0 min 0 W/m 0,0 km/h (0 Bft) 93,62 %
01.11.2020 07:22 11,7 C 10,6 C 10,0 C 94 % 1013,7 hPa 0,0 l/m 0 min 0 min 0 W/m 0,0 km/h (0 Bft) 95,65 %
01.11.2020 07:24 11,7 C 10,6 C 9,5 C 94 % 1013,7 hPa 0,0 l/m 0 min 0 min 0 W/m 0,0 km/h (0 Bft) 95,74 %
01.11.2020 07:26 11,7 C 10,6 C 9,5 C 94 % 1013,7 hPa 0,0 l/m 0 min 0 min 0 W/m 0,0 km/h (0 Bft) 95,74 %
01.11.2020 07:28 11,7 C 10,6 C 9,5 C 94 % 1013,6 hPa 0,0 l/m 0 min 0 min 0 W/m 3,2 km/h (1 Bft) 95,74 %
01.11.2020 07:30 11,7 C 10,6 C 9,5 C 94 % 1013,8 hPa 0,0 l/m 0 min 0 min 0 W/m 3,2 km/h (1 Bft) 93,62 %
01.11.2020 07:32 11,7 C 10,6 C 9,5 C 94 % 1013,8 hPa 0,0 l/m 0 min 0 min 0 W/m 6,4 km/h (2 Bft) 97,92 %
01.11.2020 07:34 11,6 C 10,6 C 10,0 C 94 % 1013,8 hPa 0,0 l/m 0 min 0 min 0 W/m 0,0 km/h (0 Bft) 97,83 %
01.11.2020 07:36 11,6 C 10,6 C 10,0 C 94 % 1013,7 hPa 0,0 l/m 0 min 0 min 0 W/m 3,2 km/h (1 Bft) 97,87 %
01.11.2020 07:38 11,6 C 10,6 C 10,0 C 95 % 1013,6 hPa 0,0 l/m 0 min 0 min 0 W/m 3,2 km/h (1 Bft) 95,74 %
01.11.2020 07:40 11,6 C 11,1 C 10,0 C 95 % 1013,5 hPa 0,0 l/m 0 min 0 min 1 W/m 3,2 km/h (1 Bft) 97,87 %
01.11.2020 07:42 11,6 C 11,1 C 10,0 C 95 % 1013,4 hPa 0,0 l/m 0 min 0 min 5 W/m 0,0 km/h (0 Bft) 97,87 %
01.11.2020 07:44 11,6 C 11,1 C 10,0 C 95 % 1013,4 hPa 0,0 l/m 0 min 0 min 5 W/m 6,4 km/h (2 Bft) 95,74 %
01.11.2020 07:46 11,6 C 11,1 C 10,0 C 94 % 1013,5 hPa 0,0 l/m 0 min 0 min 5 W/m 3,2 km/h (1 Bft) 95,65 %
01.11.2020 07:48 11,6 C 11,1 C 10,0 C 94 % 1013,5 hPa 0,0 l/m 0 min 0 min 5 W/m 3,2 km/h (1 Bft) 94,59 %
01.11.2020 07:50 11,6 C 11,1 C 10,0 C 94 % 1013,5 hPa 0,0 l/m 0 min 0 min 5 W/m 0,0 km/h (0 Bft) 97,92 %
01.11.2020 07:52 11,6 C 11,1 C 10,0 C 94 % 1013,5 hPa 0,0 l/m 0 min 0 min 2 W/m 6,4 km/h (2 Bft) 100,00 %
01.11.2020 07:54 11,6 C 11,1 C 10,0 C 94 % 1013,5 hPa 0,0 l/m 0 min 0 min 0 W/m 3,2 km/h (1 Bft) 100,00 %
01.11.2020 07:56 11,6 C 11,1 C 10,0 C 94 % 1013,4 hPa 0,0 l/m 0 min 0 min 2 W/m 3,2 km/h (1 Bft) 100,00 %
01.11.2020 07:58 11,6 C 11,1 C 10,0 C 94 % 1013,3 hPa 0,0 l/m 0 min 0 min 5 W/m 3,2 km/h (1 Bft) 100,00 %
01.11.2020 08:00 11,6 C 11,1 C 10,0 C 94 % 1013,2 hPa 0,0 l/m 0 min 0 min 6 W/m 3,2 km/h (1 Bft) 97,87 %
01.11.2020 08:02 11,6 C 11,1 C 10,0 C 94 % 1013,2 hPa 0,0 l/m 0 min 0 min 8 W/m 0,0 km/h (0 Bft) 100,00 %
01.11.2020 08:04 11,6 C 11,1 C 10,0 C 94 % 1013,2 hPa 0,0 l/m 0 min 0 min 10 W/m 0,0 km/h (0 Bft) 100,00 %
01.11.2020 08:06 11,6 C 11,1 C 10,0 C 94 % 1013,2 hPa 0,0 l/m 0 min 0 min 13 W/m 0,0 km/h (0 Bft) 97,87 %
01.11.2020 08:08 11,6 C 11,1 C 10,0 C 94 % 1013,3 hPa 0,0 l/m 0 min 0 min 16 W/m 0,0 km/h (0 Bft) 100,00 %
01.11.2020 08:10 11,6 C 11,1 C 10,6 C 94 % 1013,2 hPa 0,0 l/m 0 min 0 min 16 W/m 3,2 km/h (1 Bft) 97,87 %
01.11.2020 08:12 11,5 C 11,1 C 10,6 C 94 % 1013,2 hPa 0,0 l/m 0 min 0 min 12 W/m 3,2 km/h (1 Bft) 97,87 %
01.11.2020 08:14 11,6 C 11,1 C 10,6 C 94 % 1013,3 hPa 0,0 l/m 0 min 0 min 11 W/m 3,2 km/h (1 Bft) 100,00 %
01.11.2020 08:16 11,6 C 11,1 C 10,6 C 94 % 1013,3 hPa 0,0 l/m 0 min 0 min 9 W/m 0,0 km/h (0 Bft) 100,00 %
01.11.2020 08:18 11,6 C 11,1 C 10,6 C 94 % 1013,4 hPa 0,0 l/m 0 min 0 min 11 W/m 0,0 km/h (0 Bft) 100,00 %
01.11.2020 08:20 11,5 C 11,1 C 10,6 C 94 % 1013,5 hPa 0,0 l/m 0 min 0 min 11 W/m 12,9 km/h (3 Bft) 100,00 %
01.11.2020 08:22 11,6 C 11,1 C 10,6 C 94 % 1013,5 hPa 0,0 l/m 0 min 0 min 11 W/m 0,0 km/h (0 Bft) 100,00 %
01.11.2020 08:24 11,6 C 11,1 C 10,6 C 94 % 1013,5 hPa 0,0 l/m 0 min 0 min 13 W/m 3,2 km/h (1 Bft) 100,00 %
01.11.2020 08:26 11,6 C 11,7 C 10,6 C 94 % 1013,5 hPa 0,0 l/m 0 min 0 min 20 W/m 0,0 km/h (0 Bft) 100,00 %
01.11.2020 08:28 11,5 C 11,7 C 10,6 C 94 % 1013,5 hPa 0,0 l/m 0 min 0 min 25 W/m 3,2 km/h (1 Bft) 97,83 %
01.11.2020 08:30 11,6 C 11,7 C 10,6 C 94 % 1013,5 hPa 0,0 l/m 0 min 0 min 25 W/m 0,0 km/h (0 Bft) 100,00 %
01.11.2020 08:32 11,6 C 11,7 C 10,6 C 94 % 1013,4 hPa 0,0 l/m 0 min 0 min 26 W/m 0,0 km/h (0 Bft) 97,87 %
01.11.2020 08:34 11,6 C 11,7 C 10,6 C 94 % 1013,4 hPa 0,0 l/m 0 min 0 min 31 W/m 0,0 km/h (0 Bft) 100,00 %
01.11.2020 08:36 11,6 C 11,7 C 10,6 C 94 % 1013,5 hPa 0,0 l/m 0 min 0 min 36 W/m 0,0 km/h (0 Bft) 100,00 %
01.11.2020 08:38 11,6 C 11,7 C 10,6 C 94 % 1013,5 hPa 0,0 l/m 0 min 0 min 39 W/m 3,2 km/h (1 Bft) 100,00 %
01.11.2020 08:40 11,6 C 11,7 C 10,6 C 94 % 1013,4 hPa 0,0 l/m 0 min 0 min 35 W/m 3,2 km/h (1 Bft) 97,83 %
01.11.2020 08:42 11,6 C 11,7 C 10,6 C 94 % 1013,4 hPa 0,0 l/m 0 min 0 min 37 W/m 3,2 km/h (1 Bft) 97,87 %
01.11.2020 08:44 11,6 C 11,7 C 10,6 C 94 % 1013,3 hPa 0,0 l/m 0 min 0 min 50 W/m 3,2 km/h (1 Bft) 100,00 %
01.11.2020 08:46 11,6 C 12,2 C 11,1 C 94 % 1013,2 hPa 0,0 l/m 0 min 0 min 60 W/m 0,0 km/h (0 Bft) 100,00 %
01.11.2020 08:48 11,6 C 12,2 C 11,1 C 94 % 1013,2 hPa 0,0 l/m 0 min 0 min 69 W/m 12,9 km/h (3 Bft) 95,74 %
01.11.2020 08:50 11,6 C 12,2 C 11,1 C 94 % 1013,1 hPa 0,0 l/m 0 min 0 min 72 W/m 3,2 km/h (1 Bft) 97,87 %
01.11.2020 08:52 11,7 C 12,2 C 11,1 C 94 % 1013,0 hPa 0,0 l/m 0 min 0 min 71 W/m 6,4 km/h (2 Bft) 97,83 %
01.11.2020 08:54 11,7 C 12,2 C 11,1 C 94 % 1013,0 hPa 0,0 l/m 0 min 0 min 66 W/m 3,2 km/h (1 Bft) 95,74 %
01.11.2020 08:56 11,7 C 12,2 C 11,1 C 94 % 1013,0 hPa 0,0 l/m 0 min 0 min 60 W/m 0,0 km/h (0 Bft) 97,87 %
01.11.2020 08:58 11,8 C 12,2 C 11,1 C 94 % 1013,0 hPa 0,0 l/m 0 min 0 min 58 W/m 3,2 km/h (1 Bft) 97,87 %
01.11.2020 09:00 11,8 C 12,2 C 11,1 C 94 % 1012,9 hPa 0,0 l/m 0 min 0 min 58 W/m 3,2 km/h (1 Bft) 97,87 %
01.11.2020 09:02 11,8 C 12,2 C 11,1 C 94 % 1012,8 hPa 0,0 l/m 0 min 0 min 53 W/m 6,4 km/h (2 Bft) 95,65 %
01.11.2020 09:04 11,8 C 12,2 C 11,1 C 93 % 1012,8 hPa 0,0 l/m 0 min 0 min 49 W/m 6,4 km/h (2 Bft) 97,87 %
01.11.2020 09:06 11,8 C 12,2 C 11,1 C 93 % 1012,9 hPa 0,0 l/m 0 min 0 min 53 W/m 3,2 km/h (1 Bft) 97,87 %
01.11.2020 09:08 11,9 C 12,2 C 11,1 C 93 % 1012,9 hPa 0,0 l/m 0 min 0 min 58 W/m 6,4 km/h (2 Bft) 97,87 %
01.11.2020 09:10 11,9 C 12,2 C 11,1 C 93 % 1012,9 hPa 0,0 l/m 0 min 0 min 77 W/m 6,4 km/h (2 Bft) 95,74 %
01.11.2020 09:12 11,9 C 12,2 C 11,1 C 93 % 1013,0 hPa 0,0 l/m 0 min 0 min 92 W/m 12,9 km/h (3 Bft) 97,87 %
01.11.2020 09:14 11,9 C 12,8 C 11,1 C 93 % 1013,0 hPa 0,0 l/m 0 min 0 min 92 W/m 3,2 km/h (1 Bft) 97,83 %
01.11.2020 09:16 11,9 C 12,8 C 11,1 C 93 % 1012,9 hPa 0,0 l/m 0 min 0 min 91 W/m 0,0 km/h (0 Bft) 97,87 %
01.11.2020 09:18 12,0 C 12,8 C 11,7 C 93 % 1013,0 hPa 0,0 l/m 0 min 0 min 89 W/m 12,9 km/h (3 Bft) 97,87 %
01.11.2020 09:20 12,0 C 12,8 C 11,7 C 93 % 1013,0 hPa 0,0 l/m 0 min 0 min 74 W/m 12,9 km/h (3 Bft) 97,87 %
01.11.2020 09:22 12,0 C 12,8 C 11,7 C 92 % 1012,9 hPa 0,0 l/m 0 min 0 min 70 W/m 6,4 km/h (2 Bft) 95,74 %
01.11.2020 09:24 12,1 C 12,8 C 11,7 C 92 % 1012,9 hPa 0,0 l/m 0 min 0 min 81 W/m 12,9 km/h (3 Bft) 95,74 %
01.11.2020 09:26 12,1 C 12,8 C 11,7 C 93 % 1012,9 hPa 0,0 l/m 0 min 0 min 94 W/m 3,2 km/h (1 Bft) 97,83 %
01.11.2020 09:28 12,1 C 12,8 C 11,7 C 92 % 1012,8 hPa 0,0 l/m 0 min 0 min 101 W/m 3,2 km/h (1 Bft) 97,87 %
01.11.2020 09:30 12,2 C 12,8 C 11,7 C 92 % 1012,8 hPa 0,0 l/m 0 min 0 min 101 W/m 3,2 km/h (1 Bft) 97,87 %
01.11.2020 09:32 12,3 C 13,3 C 11,7 C 92 % 1012,8 hPa 0,0 l/m 0 min 0 min 102 W/m 6,4 km/h (2 Bft) 90,57 %
01.11.2020 09:34 12,3 C 13,3 C 11,7 C 92 % 1012,7 hPa 0,0 l/m 0 min 0 min 106 W/m 19,3 km/h (3 Bft) 97,87 %
01.11.2020 09:36 12,4 C 13,3 C 12,2 C 92 % 1012,7 hPa 0,0 l/m 0 min 0 min 111 W/m 6,4 km/h (2 Bft) 100,00 %
01.11.2020 09:38 12,4 C 13,3 C 12,2 C 92 % 1012,7 hPa 0,0 l/m 0 min 0 min 104 W/m 19,3 km/h (3 Bft) 97,87 %
01.11.2020 09:40 12,5 C 13,3 C 12,2 C 92 % 1012,7 hPa 0,0 l/m 0 min 0 min 94 W/m 12,9 km/h (3 Bft) 100,00 %
01.11.2020 09:42 12,5 C 13,3 C 12,2 C 92 % 1012,6 hPa 0,0 l/m 0 min 0 min 96 W/m 19,3 km/h (3 Bft) 100,00 %
01.11.2020 09:44 12,6 C 13,3 C 12,2 C 92 % 1012,6 hPa 0,0 l/m 0 min 0 min 111 W/m 12,9 km/h (3 Bft) 97,87 %
01.11.2020 09:46 12,7 C 13,9 C 12,2 C 92 % 1012,5 hPa 0,0 l/m 0 min 0 min 138 W/m 6,4 km/h (2 Bft) 97,87 %
01.11.2020 09:48 12,8 C 13,9 C 12,2 C 92 % 1012,5 hPa 0,0 l/m 2 min 0 min 145 W/m 6,4 km/h (2 Bft) 95,74 %
01.11.2020 09:50 12,8 C 13,9 C 12,2 C 92 % 1012,4 hPa 0,0 l/m 0 min 0 min 129 W/m 12,9 km/h (3 Bft) 95,74 %
01.11.2020 09:52 12,9 C 13,9 C 12,2 C 91 % 1012,4 hPa 0,0 l/m 0 min 0 min 105 W/m 12,9 km/h (3 Bft) 97,87 %
01.11.2020 09:54 12,9 C 13,9 C 12,2 C 91 % 1012,3 hPa 0,0 l/m 0 min 0 min 95 W/m 6,4 km/h (2 Bft) 97,83 %
01.11.2020 09:56 13,0 C 14,4 C 12,8 C 91 % 1012,3 hPa 0,0 l/m 0 min 0 min 127 W/m 3,2 km/h (1 Bft) 97,87 %
01.11.2020 09:58 13,1 C 14,4 C 12,8 C 91 % 1012,3 hPa 0,0 l/m 0 min 0 min 138 W/m 12,9 km/h (3 Bft) 97,87 %
01.11.2020 10:00 13,1 C 14,4 C 12,8 C 91 % 1012,4 hPa 0,0 l/m 0 min 0 min 110 W/m 9,7 km/h (2 Bft) 95,74 %
01.11.2020 10:02 13,2 C 14,4 C 12,8 C 91 % 1012,2 hPa 0,0 l/m 0 min 0 min 120 W/m 16,1 km/h (3 Bft) 97,92 %
01.11.2020 10:04 13,3 C 14,4 C 12,8 C 91 % 1012,2 hPa 0,0 l/m 0 min 0 min 125 W/m 12,9 km/h (3 Bft) 95,74 %
01.11.2020 10:06 13,3 C 14,4 C 12,8 C 91 % 1012,2 hPa 0,0 l/m 0 min 0 min 114 W/m 9,7 km/h (2 Bft) 93,75 %
01.11.2020 10:08 13,4 C 14,4 C 12,8 C 91 % 1012,2 hPa 0,0 l/m 0 min 0 min 131 W/m 0,0 km/h (0 Bft) 95,74 %
01.11.2020 10:10 13,5 C 14,4 C 12,8 C 90 % 1012,1 hPa 0,0 l/m 0 min 0 min 145 W/m 6,4 km/h (2 Bft) 93,62 %
01.11.2020 10:12 13,5 C 14,4 C 12,8 C 90 % 1012,2 hPa 0,0 l/m 0 min 0 min 121 W/m 19,3 km/h (3 Bft) 95,74 %
01.11.2020 10:14 13,5 C 14,4 C 12,8 C 90 % 1012,3 hPa 0,0 l/m 0 min 0 min 94 W/m 16,1 km/h (3 Bft) 95,74 %
01.11.2020 10:16 13,6 C 14,4 C 12,8 C 90 % 1012,2 hPa 0,0 l/m 0 min 0 min 79 W/m 19,3 km/h (3 Bft) 93,48 %
01.11.2020 10:18 13,7 C 14,4 C 12,8 C 89 % 1012,3 hPa 0,0 l/m 0 min 0 min 89 W/m 6,4 km/h (2 Bft) 95,74 %
01.11.2020 10:20 13,8 C 14,4 C 12,8 C 89 % 1012,4 hPa 0,0 l/m 0 min 0 min 106 W/m 12,9 km/h (3 Bft) 93,62 %
01.11.2020 10:22 13,8 C 14,4 C 12,8 C 89 % 1012,3 hPa 0,0 l/m 0 min 0 min 125 W/m 16,1 km/h (3 Bft) 93,62 %
01.11.2020 10:24 13,9 C 14,4 C 13,4 C 88 % 1012,2 hPa 0,0 l/m 0 min 0 min 142 W/m 6,4 km/h (2 Bft) 95,74 %
01.11.2020 10:26 13,9 C 14,4 C 13,4 C 88 % 1012,2 hPa 0,0 l/m 0 min 0 min 156 W/m 12,9 km/h (3 Bft) 97,87 %
01.11.2020 10:28 14,0 C 15,0 C 13,4 C 88 % 1012,1 hPa 0,0 l/m 2 min 0 min 171 W/m 6,4 km/h (2 Bft) 95,65 %
01.11.2020 10:30 14,0 C 15,0 C 13,4 C 88 % 1012,1 hPa 0,0 l/m 2 min 0 min 174 W/m 12,9 km/h (3 Bft) 97,87 %
01.11.2020 10:32 14,1 C 15,0 C 13,4 C 88 % 1012,1 hPa 0,0 l/m 0 min 0 min 168 W/m 3,2 km/h (1 Bft) 95,83 %
01.11.2020 10:34 14,2 C 15,0 C 13,4 C 88 % 1012,1 hPa 0,0 l/m 0 min 0 min 154 W/m 16,1 km/h (3 Bft) 95,74 %
01.11.2020 10:36 14,2 C 15,0 C 13,4 C 87 % 1012,1 hPa 0,0 l/m 0 min 0 min 156 W/m 19,3 km/h (3 Bft) 97,87 %
01.11.2020 10:38 14,2 C 15,0 C 13,4 C 87 % 1012,1 hPa 0,0 l/m 0 min 0 min 166 W/m 3,2 km/h (1 Bft) 97,87 %
01.11.2020 10:40 14,3 C 15,0 C 13,9 C 87 % 1012,1 hPa 0,0 l/m 0 min 0 min 156 W/m 0,0 km/h (0 Bft) 97,83 %
01.11.2020 10:42 14,4 C 15,6 C 13,9 C 87 % 1012,1 hPa 0,0 l/m 0 min 0 min 152 W/m 16,1 km/h (3 Bft) 97,87 %
01.11.2020 10:44 14,4 C 15,0 C 13,9 C 86 % 1012,1 hPa 0,0 l/m 0 min 0 min 146 W/m 16,1 km/h (3 Bft) 97,87 %
01.11.2020 10:46 14,5 C 15,0 C 13,9 C 86 % 1012,0 hPa 0,0 l/m 0 min 0 min 150 W/m 16,1 km/h (3 Bft) 95,74 %
01.11.2020 10:48 14,5 C 15,6 C 13,9 C 86 % 1012,1 hPa 0,0 l/m 2 min 0 min 184 W/m 19,3 km/h (3 Bft) 97,87 %
01.11.2020 10:50 14,6 C 15,6 C 13,9 C 86 % 1012,1 hPa 0,0 l/m 2 min 0 min 198 W/m 12,9 km/h (3 Bft) 97,87 %
01.11.2020 10:52 14,6 C 15,6 C 13,9 C 86 % 1012,0 hPa 0,0 l/m 2 min 0 min 184 W/m 12,9 km/h (3 Bft) 97,83 %
01.11.2020 10:54 14,7 C 15,6 C 13,9 C 85 % 1012,0 hPa 0,0 l/m 0 min 0 min 166 W/m 3,2 km/h (1 Bft) 97,87 %
01.11.2020 10:56 14,8 C 15,6 C 13,9 C 86 % 1012,0 hPa 0,0 l/m 0 min 0 min 152 W/m 3,2 km/h (1 Bft) 97,87 %
01.11.2020 10:58 14,8 C 15,6 C 13,9 C 85 % 1012,0 hPa 0,0 l/m 0 min 0 min 136 W/m 6,4 km/h (2 Bft) 97,87 %
01.11.2020 11:00 14,9 C 15,6 C 13,9 C 85 % 1011,9 hPa 0,0 l/m 0 min 0 min 119 W/m 22,5 km/h (4 Bft) 100,00 %
01.11.2020 11:02 14,9 C 15,6 C 13,9 C 85 % 1011,9 hPa 0,0 l/m 0 min 0 min 120 W/m 19,3 km/h (3 Bft) 97,22 %
01.11.2020 11:04 15,0 C 15,6 C 13,9 C 84 % 1011,9 hPa 0,0 l/m 0 min 0 min 119 W/m 19,3 km/h (3 Bft) 100,00 %
01.11.2020 11:06 15,0 C 15,6 C 13,9 C 84 % 1011,8 hPa 0,0 l/m 0 min 0 min 112 W/m 19,3 km/h (3 Bft) 100,00 %
01.11.2020 11:08 15,0 C 15,6 C 13,9 C 84 % 1011,8 hPa 0,0 l/m 0 min 0 min 119 W/m 16,1 km/h (3 Bft) 100,00 %
01.11.2020 11:10 15,1 C 15,6 C 13,9 C 84 % 1011,8 hPa 0,0 l/m 0 min 0 min 126 W/m 3,2 km/h (1 Bft) 97,87 %
01.11.2020 11:12 15,1 C 15,6 C 13,9 C 84 % 1011,8 hPa 0,0 l/m 0 min 0 min 114 W/m 6,4 km/h (2 Bft) 97,83 %
01.11.2020 11:14 15,1 C 15,6 C 13,9 C 84 % 1011,8 hPa 0,0 l/m 0 min 0 min 100 W/m 3,2 km/h (1 Bft) 100,00 %
01.11.2020 11:16 15,2 C 15,6 C 13,9 C 83 % 1011,9 hPa 0,0 l/m 0 min 0 min 100 W/m 12,9 km/h (3 Bft) 97,87 %
01.11.2020 11:18 15,2 C 15,6 C 13,9 C 83 % 1011,8 hPa 0,0 l/m 0 min 0 min 116 W/m 22,5 km/h (4 Bft) 100,00 %
01.11.2020 11:20 15,3 C 15,6 C 13,9 C 83 % 1011,9 hPa 0,0 l/m 0 min 0 min 130 W/m 3,2 km/h (1 Bft) 97,87 %
01.11.2020 11:22 15,3 C 15,6 C 13,9 C 83 % 1011,8 hPa 0,0 l/m 0 min 0 min 110 W/m 16,1 km/h (3 Bft) 97,83 %
01.11.2020 11:24 15,3 C 15,6 C 13,9 C 83 % 1011,8 hPa 0,0 l/m 0 min 0 min 89 W/m 16,1 km/h (3 Bft) 100,00 %
01.11.2020 11:26 15,3 C 15,6 C 13,9 C 83 % 1011,7 hPa 0,0 l/m 0 min 0 min 84 W/m 16,1 km/h (3 Bft) 100,00 %
01.11.2020 11:28 15,4 C 15,6 C 13,9 C 83 % 1011,7 hPa 0,0 l/m 0 min 0 min 80 W/m 0,0 km/h (0 Bft) 97,87 %
01.11.2020 11:30 15,4 C 15,6 C 13,9 C 83 % 1011,7 hPa 0,0 l/m 0 min 0 min 65 W/m 12,9 km/h (3 Bft) 100,00 %
01.11.2020 11:32 15,4 C 15,6 C 13,9 C 82 % 1011,6 hPa 0,0 l/m 0 min 0 min 67 W/m 16,1 km/h (3 Bft) 97,87 %
01.11.2020 11:34 15,4 C 15,6 C 13,9 C 82 % 1011,6 hPa 0,0 l/m 0 min 0 min 99 W/m 6,4 km/h (2 Bft) 100,00 %
01.11.2020 11:36 15,5 C 15,6 C 13,9 C 82 % 1011,6 hPa 0,0 l/m 0 min 0 min 116 W/m 6,4 km/h (2 Bft) 100,00 %
01.11.2020 11:38 15,5 C 15,6 C 13,9 C 82 % 1011,6 hPa 0,0 l/m 0 min 0 min 117 W/m 12,9 km/h (3 Bft) 97,87 %
01.11.2020 11:40 15,5 C 15,6 C 13,9 C 82 % 1011,5 hPa 0,0 l/m 0 min 0 min 106 W/m 3,2 km/h (1 Bft) 100,00 %
01.11.2020 11:42 15,5 C 15,6 C 13,9 C 82 % 1011,5 hPa 0,0 l/m 0 min 0 min 80 W/m 19,3 km/h (3 Bft) 100,00 %
01.11.2020 11:44 15,5 C 15,6 C 13,9 C 82 % 1011,4 hPa 0,0 l/m 0 min 0 min 68 W/m 16,1 km/h (3 Bft) 100,00 %
01.11.2020 11:46 15,5 C 15,6 C 13,9 C 82 % 1011,5 hPa 0,0 l/m 0 min 0 min 63 W/m 19,3 km/h (3 Bft) 95,65 %
01.11.2020 11:48 15,6 C 15,6 C 13,9 C 82 % 1011,4 hPa 0,0 l/m 0 min 0 min 61 W/m 19,3 km/h (3 Bft) 97,87 %
01.11.2020 11:50 15,6 C 15,6 C 13,9 C 82 % 1011,4 hPa 0,0 l/m 0 min 0 min 79 W/m 12,9 km/h (3 Bft) 100,00 %
01.11.2020 11:52 15,6 C 15,6 C 13,9 C 82 % 1011,4 hPa 0,0 l/m 0 min 0 min 96 W/m 12,9 km/h (3 Bft) 100,00 %
01.11.2020 11:54 15,6 C 15,6 C 13,9 C 82 % 1011,3 hPa 0,0 l/m 0 min 0 min 91 W/m 16,1 km/h (3 Bft) 97,87 %
01.11.2020 11:56 15,6 C 15,0 C 13,9 C 82 % 1011,4 hPa 0,0 l/m 0 min 0 min 81 W/m 16,1 km/h (3 Bft) 97,87 %
01.11.2020 11:58 15,7 C 15,0 C 13,9 C 82 % 1011,3 hPa 0,0 l/m 0 min 0 min 88 W/m 0,0 km/h (0 Bft) 100,00 %
01.11.2020 12:00 15,7 C 15,6 C 13,9 C 83 % 1011,3 hPa 0,0 l/m 0 min 0 min 98 W/m 0,0 km/h (0 Bft) 95,74 %
01.11.2020 12:02 15,7 C 15,6 C 13,9 C 83 % 1011,2 hPa 0,0 l/m 0 min 0 min 100 W/m 6,4 km/h (2 Bft) 95,74 %
01.11.2020 12:04 15,7 C 15,6 C 13,9 C 82 % 1011,2 hPa 0,0 l/m 0 min 0 min 111 W/m 19,3 km/h (3 Bft) 97,87 %
01.11.2020 12:07 15,8 C 15,6 C 13,9 C 83 % 1011,1 hPa 0,0 l/m 0 min 0 min 121 W/m 12,9 km/h (3 Bft) 96,10 %
01.11.2020 12:08 15,8 C 15,6 C 13,9 C 83 % 1011,1 hPa 0,0 l/m 0 min 0 min 116 W/m 3,2 km/h (1 Bft) 95,83 %
01.11.2020 12:10 15,8 C 15,6 C 14,5 C 83 % 1011,0 hPa 0,0 l/m 0 min 0 min 101 W/m 0,0 km/h (0 Bft) 95,74 %
01.11.2020 12:12 15,8 C 15,6 C 14,5 C 83 % 1011,0 hPa 0,0 l/m 0 min 0 min 104 W/m 0,0 km/h (0 Bft) 95,74 %
01.11.2020 12:14 15,8 C 15,6 C 14,5 C 83 % 1011,0 hPa 0,0 l/m 0 min 0 min 107 W/m 25,7 km/h (4 Bft) 93,48 %
01.11.2020 12:16 15,9 C 15,6 C 14,5 C 83 % 1010,9 hPa 0,0 l/m 0 min 0 min 102 W/m 29,0 km/h (5 Bft) 95,74 %
01.11.2020 12:18 15,9 C 15,6 C 14,5 C 84 % 1010,9 hPa 0,0 l/m 0 min 0 min 89 W/m 19,3 km/h (3 Bft) 95,74 %
01.11.2020 12:20 15,9 C 15,6 C 14,5 C 84 % 1010,9 hPa 0,0 l/m 0 min 0 min 86 W/m 16,1 km/h (3 Bft) 95,74 %
01.11.2020 12:22 15,9 C 15,6 C 13,9 C 84 % 1010,9 hPa 0,0 l/m 0 min 0 min 88 W/m 25,7 km/h (4 Bft) 95,74 %
01.11.2020 12:24 15,9 C 15,6 C 13,9 C 84 % 1010,9 hPa 0,0 l/m 0 min 0 min 81 W/m 22,5 km/h (4 Bft) 95,74 %
01.11.2020 12:26 16,0 C 15,6 C 13,9 C 84 % 1010,8 hPa 0,0 l/m 0 min 0 min 92 W/m 3,2 km/h (1 Bft) 93,48 %
01.11.2020 12:28 16,0 C 15,6 C 14,5 C 85 % 1010,8 hPa 0,0 l/m 0 min 0 min 89 W/m 3,2 km/h (1 Bft) 95,74 %
01.11.2020 12:30 16,0 C 15,6 C 14,5 C 85 % 1010,7 hPa 0,0 l/m 0 min 0 min 91 W/m 16,1 km/h (3 Bft) 95,74 %
01.11.2020 12:32 16,0 C 15,6 C 14,5 C 85 % 1010,7 hPa 0,0 l/m 0 min 0 min 91 W/m 22,5 km/h (4 Bft) 95,83 %
01.11.2020 12:34 16,0 C 15,6 C 14,5 C 85 % 1010,7 hPa 0,0 l/m 0 min 0 min 78 W/m 25,7 km/h (4 Bft) 95,74 %
01.11.2020 12:36 16,0 C 15,6 C 14,5 C 85 % 1010,6 hPa 0,0 l/m 0 min 0 min 57 W/m 16,1 km/h (3 Bft) 93,48 %
01.11.2020 12:38 16,0 C 15,6 C 14,5 C 85 % 1010,6 hPa 0,0 l/m 0 min 0 min 69 W/m 6,4 km/h (2 Bft) 95,74 %
01.11.2020 12:40 16,1 C 15,6 C 14,5 C 85 % 1010,5 hPa 0,0 l/m 0 min 0 min 74 W/m 16,1 km/h (3 Bft) 97,87 %
01.11.2020 12:42 16,1 C 15,6 C 14,5 C 85 % 1010,4 hPa 0,0 l/m 0 min 0 min 72 W/m 12,9 km/h (3 Bft) 91,49 %
01.11.2020 12:44 16,1 C 15,6 C 14,5 C 85 % 1010,4 hPa 0,0 l/m 0 min 0 min 72 W/m 6,4 km/h (2 Bft) 93,62 %
01.11.2020 12:46 16,1 C 15,6 C 14,5 C 85 % 1010,4 hPa 0,0 l/m 0 min 0 min 69 W/m 12,9 km/h (3 Bft) 93,62 %
01.11.2020 12:48 16,1 C 15,6 C 14,5 C 85 % 1010,4 hPa 0,0 l/m 0 min 0 min 64 W/m 12,9 km/h (3 Bft) 95,65 %
01.11.2020 12:50 16,1 C 15,6 C 14,5 C 85 % 1010,4 hPa 0,0 l/m 0 min 0 min 61 W/m 12,9 km/h (3 Bft) 95,74 %
01.11.2020 12:52 16,1 C 15,6 C 14,5 C 85 % 1010,4 hPa 0,0 l/m 0 min 0 min 62 W/m 16,1 km/h (3 Bft) 95,74 %
01.11.2020 12:54 16,1 C 15,6 C 14,5 C 85 % 1010,3 hPa 0,0 l/m 0 min 0 min 61 W/m 3,2 km/h (1 Bft) 100,00 %
01.11.2020 12:56 16,1 C 15,6 C 14,5 C 85 % 1010,3 hPa 0,0 l/m 0 min 0 min 50 W/m 0,0 km/h (0 Bft) 95,74 %
01.11.2020 12:58 16,1 C 15,6 C 14,5 C 85 % 1010,3 hPa 0,0 l/m 0 min 0 min 44 W/m 3,2 km/h (1 Bft) 97,87 %
01.11.2020 13:00 16,1 C 15,6 C 14,5 C 85 % 1010,2 hPa 0,0 l/m 0 min 0 min 57 W/m 3,2 km/h (1 Bft) 100,00 %
01.11.2020 13:02 16,1 C 15,6 C 14,5 C 85 % 1010,2 hPa 0,0 l/m 0 min 0 min 78 W/m 12,9 km/h (3 Bft) 100,00 %
01.11.2020 13:04 16,1 C 15,6 C 14,5 C 85 % 1010,1 hPa 0,0 l/m 0 min 0 min 72 W/m 6,4 km/h (2 Bft) 100,00 %
01.11.2020 13:06 16,1 C 15,6 C 14,5 C 85 % 1010,1 hPa 0,0 l/m 0 min 0 min 66 W/m 12,9 km/h (3 Bft) 100,00 %
01.11.2020 13:08 16,1 C 15,6 C 14,5 C 85 % 1010,1 hPa 0,0 l/m 0 min 0 min 50 W/m 6,4 km/h (2 Bft) 97,87 %
01.11.2020 13:10 16,1 C 15,6 C 13,9 C 85 % 1010,0 hPa 0,0 l/m 0 min 0 min 47 W/m 12,9 km/h (3 Bft) 97,83 %
01.11.2020 13:12 16,0 C 15,6 C 13,9 C 85 % 1009,9 hPa 0,0 l/m 0 min 0 min 55 W/m 16,1 km/h (3 Bft) 97,87 %
01.11.2020 13:14 16,1 C 15,6 C 14,5 C 85 % 1009,9 hPa 0,0 l/m 0 min 0 min 60 W/m 16,1 km/h (3 Bft) 97,87 %
01.11.2020 13:16 16,0 C 15,6 C 14,5 C 85 % 1010,0 hPa 0,0 l/m 0 min 0 min 57 W/m 16,1 km/h (3 Bft) 97,87 %
01.11.2020 13:18 16,1 C 15,6 C 14,5 C 85 % 1009,8 hPa 0,0 l/m 0 min 0 min 45 W/m 12,9 km/h (3 Bft) 97,87 %
01.11.2020 13:20 16,1 C 15,6 C 14,5 C 85 % 1009,9 hPa 0,0 l/m 0 min 0 min 47 W/m 12,9 km/h (3 Bft) 97,87 %
01.11.2020 13:22 16,1 C 15,6 C 14,5 C 86 % 1009,9 hPa 0,0 l/m 0 min 0 min 51 W/m 6,4 km/h (2 Bft) 97,83 %
01.11.2020 13:24 16,1 C 15,6 C 14,5 C 86 % 1009,8 hPa 0,0 l/m 0 min 0 min 53 W/m 16,1 km/h (3 Bft) 97,87 %
01.11.2020 13:26 16,1 C 15,6 C 14,5 C 86 % 1009,8 hPa 0,0 l/m 0 min 0 min 47 W/m 12,9 km/h (3 Bft) 97,87 %
01.11.2020 13:28 16,1 C 16,1 C 14,5 C 87 % 1009,8 hPa 0,0 l/m 0 min 0 min 39 W/m 29,0 km/h (5 Bft) 95,74 %
01.11.2020 13:30 16,3 C 16,1 C 14,5 C 87 % 1009,9 hPa 0,0 l/m 0 min 0 min 35 W/m 32,2 km/h (5 Bft) 97,87 %
01.11.2020 13:32 16,3 C 16,1 C 14,5 C 88 % 1010,0 hPa 0,0 l/m 0 min 0 min 30 W/m 22,5 km/h (4 Bft) 97,92 %
01.11.2020 13:34 16,4 C 16,1 C 14,5 C 88 % 1009,9 hPa 0,0 l/m 0 min 0 min 34 W/m 19,3 km/h (3 Bft) 97,83 %
01.11.2020 13:36 16,5 C 16,7 C 15,0 C 89 % 1009,9 hPa 0,0 l/m 0 min 0 min 38 W/m 35,4 km/h (5 Bft) 97,87 %
01.11.2020 13:38 16,5 C 16,7 C 15,0 C 89 % 1009,8 hPa 0,0 l/m 0 min 0 min 41 W/m 19,3 km/h (3 Bft) 97,87 %
01.11.2020 13:40 16,6 C 16,7 C 15,0 C 89 % 1009,7 hPa 0,0 l/m 0 min 0 min 39 W/m 22,5 km/h (4 Bft) 97,87 %
01.11.2020 13:42 16,6 C 16,7 C 15,0 C 89 % 1009,7 hPa 0,0 l/m 0 min 0 min 46 W/m 22,5 km/h (4 Bft) 95,74 %
01.11.2020 13:44 16,7 C 16,7 C 15,0 C 90 % 1009,7 hPa 0,0 l/m 0 min 0 min 61 W/m 22,5 km/h (4 Bft) 97,87 %
01.11.2020 13:46 16,8 C 16,7 C 15,0 C 89 % 1009,7 hPa 0,0 l/m 0 min 0 min 68 W/m 16,1 km/h (3 Bft) 97,83 %
01.11.2020 13:48 16,8 C 16,7 C 15,6 C 90 % 1009,7 hPa 0,0 l/m 0 min 0 min 74 W/m 3,2 km/h (1 Bft) 97,87 %
01.11.2020 13:50 16,9 C 16,7 C 15,6 C 90 % 1009,7 hPa 0,0 l/m 0 min 0 min 78 W/m 22,5 km/h (4 Bft) 97,87 %
01.11.2020 13:52 16,9 C 16,7 C 15,6 C 90 % 1009,7 hPa 0,0 l/m 0 min 0 min 75 W/m 22,5 km/h (4 Bft) 97,87 %
01.11.2020 13:54 17,0 C 16,7 C 15,6 C 90 % 1009,7 hPa 0,0 l/m 0 min 0 min 71 W/m 22,5 km/h (4 Bft) 97,87 %
01.11.2020 13:56 17,0 C 16,1 C 15,0 C 90 % 1009,6 hPa 0,0 l/m 0 min 0 min 69 W/m 12,9 km/h (3 Bft) 97,87 %
01.11.2020 13:58 17,1 C 15,6 C 14,5 C 90 % 1009,7 hPa 0,0 l/m 0 min 0 min 72 W/m 38,6 km/h (5 Bft) 97,83 %
01.11.2020 14:00 17,1 C 15,6 C 14,5 C 90 % 1009,5 hPa 0,0 l/m 0 min 0 min 77 W/m 29,0 km/h (5 Bft) 97,87 %
01.11.2020 14:02 17,2 C 15,6 C 14,5 C 91 % 1009,4 hPa 0,0 l/m 0 min 0 min 100 W/m 22,5 km/h (4 Bft) 100,00 %
01.11.2020 14:04 17,3 C 15,6 C 14,5 C 91 % 1009,4 hPa 0,0 l/m 0 min 0 min 120 W/m 32,2 km/h (5 Bft) 100,00 %
01.11.2020 14:06 17,3 C 15,6 C 14,5 C 91 % 1009,4 hPa 0,0 l/m 0 min 2 min 138 W/m 16,1 km/h (3 Bft) 97,87 %
01.11.2020 14:08 17,3 C 15,6 C 14,5 C 91 % 1009,4 hPa 0,0 l/m 0 min 2 min 120 W/m 16,1 km/h (3 Bft) 95,74 %
01.11.2020 14:10 17,3 C 15,6 C 14,5 C 92 % 1009,4 hPa 0,0 l/m 0 min 0 min 108 W/m 35,4 km/h (5 Bft) 97,83 %
01.11.2020 14:12 17,3 C 15,6 C 14,5 C 92 % 1009,3 hPa 0,0 l/m 0 min 0 min 92 W/m 19,3 km/h (3 Bft) 97,87 %
01.11.2020 14:14 17,3 C 15,6 C 14,5 C 92 % 1009,3 hPa 0,0 l/m 0 min 0 min 68 W/m 12,9 km/h (3 Bft) 100,00 %
01.11.2020 14:16 17,3 C 15,0 C 14,5 C 92 % 1009,3 hPa 0,0 l/m 0 min 0 min 47 W/m 3,2 km/h (1 Bft) 97,87 %
01.11.2020 14:18 17,3 C 15,0 C 14,5 C 92 % 1009,3 hPa 0,0 l/m 0 min 0 min 46 W/m 12,9 km/h (3 Bft) 100,00 %
01.11.2020 14:20 17,2 C 15,0 C 14,5 C 92 % 1009,2 hPa 0,0 l/m 0 min 0 min 48 W/m 19,3 km/h (3 Bft) 100,00 %
01.11.2020 14:22 17,2 C 15,6 C 14,5 C 93 % 1009,2 hPa 0,0 l/m 0 min 0 min 45 W/m 6,4 km/h (2 Bft) 100,00 %
01.11.2020 14:24 17,1 C 15,6 C 14,5 C 92 % 1009,1 hPa 0,0 l/m 0 min 0 min 44 W/m 25,7 km/h (4 Bft) 100,00 %
01.11.2020 14:26 17,1 C 15,6 C 14,5 C 93 % 1009,1 hPa 0,0 l/m 0 min 0 min 54 W/m 22,5 km/h (4 Bft) 100,00 %
01.11.2020 14:28 17,1 C 15,6 C 14,5 C 93 % 1009,1 hPa 0,0 l/m 0 min 0 min 70 W/m 25,7 km/h (4 Bft) 100,00 %
01.11.2020 14:30 17,1 C 15,6 C 14,5 C 93 % 1009,1 hPa 0,0 l/m 0 min 0 min 61 W/m 32,2 km/h (5 Bft) 100,00 %
01.11.2020 14:32 17,0 C 15,6 C 14,5 C 93 % 1009,0 hPa 0,0 l/m 0 min 0 min 41 W/m 16,1 km/h (3 Bft) 100,00 %
01.11.2020 14:34 17,0 C 15,6 C 14,5 C 93 % 1009,1 hPa 0,0 l/m 0 min 0 min 40 W/m 19,3 km/h (3 Bft) 100,00 %
01.11.2020 14:36 17,0 C 15,6 C 15,0 C 93 % 1009,2 hPa 0,0 l/m 0 min 0 min 44 W/m 16,1 km/h (3 Bft) 100,00 %
01.11.2020 14:38 17,0 C 16,1 C 15,0 C 93 % 1009,1 hPa 0,0 l/m 0 min 0 min 52 W/m 22,5 km/h (4 Bft) 100,00 %
01.11.2020 14:40 17,0 C 16,1 C 15,0 C 94 % 1009,0 hPa 0,0 l/m 0 min 0 min 60 W/m 25,7 km/h (4 Bft) 97,87 %
01.11.2020 14:42 17,0 C 16,1 C 15,0 C 94 % 1009,0 hPa 0,0 l/m 0 min 0 min 62 W/m 16,1 km/h (3 Bft) 95,74 %
01.11.2020 14:44 17,0 C 16,1 C 15,0 C 94 % 1009,1 hPa 0,0 l/m 0 min 0 min 55 W/m 22,5 km/h (4 Bft) 97,83 %
01.11.2020 14:46 17,0 C 16,1 C 15,0 C 94 % 1009,1 hPa 0,0 l/m 0 min 0 min 43 W/m 16,1 km/h (3 Bft) 97,87 %
01.11.2020 14:48 17,0 C 16,1 C 15,0 C 94 % 1009,0 hPa 0,0 l/m 0 min 0 min 39 W/m 12,9 km/h (3 Bft) 97,87 %
01.11.2020 14:50 17,0 C 16,1 C 15,0 C 94 % 1009,1 hPa 0,0 l/m 0 min 0 min 39 W/m 16,1 km/h (3 Bft) 95,74 %
01.11.2020 14:52 17,0 C 16,7 C 15,0 C 94 % 1009,1 hPa 0,0 l/m 0 min 0 min 53 W/m 19,3 km/h (3 Bft) 95,74 %
01.11.2020 14:54 17,0 C 16,7 C 15,6 C 94 % 1009,0 hPa 0,0 l/m 0 min 0 min 57 W/m 32,2 km/h (5 Bft) 95,74 %
01.11.2020 14:56 17,0 C 16,7 C 15,6 C 94 % 1009,0 hPa 0,0 l/m 0 min 0 min 50 W/m 16,1 km/h (3 Bft) 95,65 %
01.11.2020 14:58 17,0 C 16,7 C 15,6 C 94 % 1009,0 hPa 0,0 l/m 0 min 0 min 51 W/m 12,9 km/h (3 Bft) 50,00 %
01.11.2020 15:00 17,0 C 16,7 C 15,6 C 94 % 1008,9 hPa 0,0 l/m 0 min 0 min 40 W/m 19,3 km/h (3 Bft) 93,62 %
01.11.2020 15:02 17,0 C 16,7 C 15,6 C 94 % 1009,0 hPa 0,0 l/m 0 min 0 min 36 W/m 25,7 km/h (4 Bft) 97,87 %
01.11.2020 15:04 17,0 C 16,7 C 15,6 C 94 % 1009,0 hPa 0,0 l/m 0 min 0 min 41 W/m 25,7 km/h (4 Bft) 97,87 %
01.11.2020 15:06 17,0 C 16,7 C 15,6 C 94 % 1008,9 hPa 0,0 l/m 0 min 0 min 55 W/m 19,3 km/h (3 Bft) 95,74 %
01.11.2020 15:08 17,1 C 16,7 C 15,6 C 94 % 1009,0 hPa 0,0 l/m 0 min 0 min 85 W/m 32,2 km/h (5 Bft) 95,65 %
01.11.2020 15:10 17,1 C 17,2 C 15,6 C 94 % 1009,1 hPa 0,0 l/m 0 min 0 min 114 W/m 32,2 km/h (5 Bft) 95,74 %
01.11.2020 15:12 17,1 C 17,2 C 16,1 C 94 % 1009,0 hPa 0,0 l/m 2 min 0 min 132 W/m 25,7 km/h (4 Bft) 93,62 %
01.11.2020 15:14 17,2 C 17,2 C 16,1 C 93 % 1008,9 hPa 0,0 l/m 0 min 0 min 101 W/m 25,7 km/h (4 Bft) 95,74 %
01.11.2020 15:16 17,2 C 17,2 C 16,1 C 93 % 1009,0 hPa 0,0 l/m 0 min 0 min 103 W/m 19,3 km/h (3 Bft) 95,74 %
01.11.2020 15:18 17,3 C 17,2 C 16,1 C 93 % 1009,0 hPa 0,0 l/m 0 min 0 min 76 W/m 29,0 km/h (5 Bft) 93,62 %
01.11.2020 15:20 17,3 C 17,2 C 16,1 C 93 % 1009,1 hPa 0,0 l/m 0 min 0 min 52 W/m 6,4 km/h (2 Bft) 95,65 %
01.11.2020 15:22 17,4 C 17,2 C 16,1 C 93 % 1009,2 hPa 0,0 l/m 0 min 0 min 36 W/m 29,0 km/h (5 Bft) 95,74 %
01.11.2020 15:24 17,4 C 17,2 C 16,1 C 93 % 1009,4 hPa 0,0 l/m 0 min 0 min 28 W/m 41,8 km/h (6 Bft) 97,87 %
01.11.2020 15:26 17,4 C 17,2 C 16,1 C 93 % 1009,2 hPa 0,0 l/m 0 min 0 min 27 W/m 29,0 km/h (5 Bft) 97,87 %
01.11.2020 15:28 17,4 C 17,2 C 16,1 C 92 % 1009,1 hPa 0,0 l/m 0 min 0 min 37 W/m 22,5 km/h (4 Bft) 95,74 %
01.11.2020 15:30 17,5 C 17,2 C 16,1 C 92 % 1009,2 hPa 0,0 l/m 0 min 0 min 33 W/m 45,1 km/h (6 Bft) 93,48 %
01.11.2020 15:32 17,5 C 17,2 C 16,1 C 92 % 1009,2 hPa 0,0 l/m 0 min 0 min 31 W/m 32,2 km/h (5 Bft) 100,00 %
01.11.2020 15:34 17,5 C 17,2 C 16,1 C 92 % 1009,3 hPa 0,0 l/m 0 min 0 min 33 W/m 12,9 km/h (3 Bft) 97,83 %
01.11.2020 15:36 17,6 C 17,2 C 16,1 C 92 % 1009,2 hPa 0,0 l/m 0 min 0 min 34 W/m 19,3 km/h (3 Bft) 95,83 %
01.11.2020 15:38 17,6 C 17,2 C 16,1 C 92 % 1009,1 hPa 0,0 l/m 0 min 0 min 38 W/m 6,4 km/h (2 Bft) 93,62 %
01.11.2020 15:40 17,6 C 16,7 C 15,6 C 92 % 1009,2 hPa 0,0 l/m 0 min 0 min 36 W/m 25,7 km/h (4 Bft) 97,83 %
01.11.2020 15:42 17,6 C 17,2 C 16,1 C 92 % 1009,2 hPa 0,0 l/m 0 min 0 min 45 W/m 35,4 km/h (5 Bft) 97,87 %
01.11.2020 15:44 17,6 C 17,2 C 16,1 C 92 % 1009,2 hPa 0,0 l/m 0 min 0 min 44 W/m 16,1 km/h (3 Bft) 95,74 %
01.11.2020 15:46 17,6 C 17,2 C 16,1 C 92 % 1009,2 hPa 0,0 l/m 0 min 0 min 46 W/m 25,7 km/h (4 Bft) 95,74 %
01.11.2020 15:48 17,6 C 17,2 C 16,1 C 92 % 1009,2 hPa 0,0 l/m 0 min 0 min 45 W/m 12,9 km/h (3 Bft) 97,87 %
01.11.2020 15:50 17,7 C 17,2 C 16,1 C 92 % 1009,2 hPa 0,0 l/m 0 min 0 min 42 W/m 22,5 km/h (4 Bft) 97,83 %
01.11.2020 15:52 17,7 C 17,2 C 16,1 C 92 % 1009,2 hPa 0,0 l/m 0 min 0 min 59 W/m 25,7 km/h (4 Bft) 97,87 %
01.11.2020 15:54 17,7 C 17,2 C 16,1 C 91 % 1009,1 hPa 0,0 l/m 0 min 0 min 75 W/m 25,7 km/h (4 Bft) 97,87 %
01.11.2020 15:56 17,7 C 17,2 C 16,1 C 91 % 1009,1 hPa 0,0 l/m 0 min 0 min 58 W/m 19,3 km/h (3 Bft) 97,87 %
01.11.2020 15:58 17,8 C 17,2 C 16,1 C 91 % 1009,2 hPa 0,0 l/m 0 min 0 min 44 W/m 29,0 km/h (5 Bft) 97,87 %
01.11.2020 16:00 17,8 C 17,2 C 16,1 C 91 % 1009,2 hPa 0,0 l/m 0 min 0 min 44 W/m 16,1 km/h (3 Bft) 95,74 %
01.11.2020 16:02 17,8 C 17,2 C 16,1 C 91 % 1009,1 hPa 0,0 l/m 0 min 0 min 46 W/m 22,5 km/h (4 Bft) 97,83 %
01.11.2020 16:04 17,8 C 17,2 C 16,1 C 91 % 1009,1 hPa 0,0 l/m 0 min 0 min 39 W/m 29,0 km/h (5 Bft) 97,87 %
01.11.2020 16:06 17,8 C 17,2 C 16,1 C 91 % 1009,1 hPa 0,0 l/m 0 min 0 min 42 W/m 35,4 km/h (5 Bft) 100,00 %
01.11.2020 16:08 17,8 C 17,2 C 16,1 C 91 % 1009,0 hPa 0,0 l/m 0 min 0 min 40 W/m 19,3 km/h (3 Bft) 100,00 %
01.11.2020 16:10 17,9 C 17,2 C 16,1 C 91 % 1009,1 hPa 0,0 l/m 0 min 0 min 37 W/m 29,0 km/h (5 Bft) 100,00 %
01.11.2020 16:12 17,9 C 17,2 C 16,1 C 91 % 1009,0 hPa 0,0 l/m 0 min 0 min 29 W/m 25,7 km/h (4 Bft) 100,00 %
01.11.2020 16:14 17,9 C 17,2 C 16,1 C 91 % 1009,1 hPa 0,0 l/m 0 min 0 min 19 W/m 32,2 km/h (5 Bft) 100,00 %
01.11.2020 16:16 17,9 C 17,2 C 16,1 C 90 % 1009,1 hPa 0,0 l/m 0 min 0 min 15 W/m 32,2 km/h (5 Bft) 100,00 %
01.11.2020 16:18 17,9 C 17,2 C 16,1 C 90 % 1009,0 hPa 0,0 l/m 0 min 0 min 18 W/m 22,5 km/h (4 Bft) 100,00 %
01.11.2020 16:20 17,9 C 17,2 C 16,1 C 90 % 1009,2 hPa 0,0 l/m 0 min 0 min 19 W/m 38,6 km/h (5 Bft) 100,00 %
01.11.2020 16:22 17,9 C 17,2 C 16,1 C 90 % 1009,4 hPa 0,0 l/m 0 min 0 min 19 W/m 41,8 km/h (6 Bft) 97,87 %
01.11.2020 16:24 17,9 C 17,2 C 16,1 C 90 % 1009,1 hPa 0,0 l/m 0 min 0 min 18 W/m 35,4 km/h (5 Bft) 97,87 %
01.11.2020 16:26 17,9 C 17,2 C 16,1 C 90 % 1009,1 hPa 0,0 l/m 0 min 0 min 18 W/m 19,3 km/h (3 Bft) 100,00 %
01.11.2020 16:28 17,9 C 17,2 C 16,1 C 90 % 1009,1 hPa 0,0 l/m 0 min 0 min 15 W/m 32,2 km/h (5 Bft) 97,87 %
01.11.2020 16:30 18,0 C 16,7 C 16,1 C 90 % 1009,2 hPa 0,0 l/m 0 min 0 min 13 W/m 35,4 km/h (5 Bft) 97,87 %
01.11.2020 16:32 18,0 C 16,7 C 15,6 C 90 % 1009,3 hPa 0,0 l/m 0 min 0 min 14 W/m 45,1 km/h (6 Bft) 97,87 %
01.11.2020 16:34 17,9 C 16,7 C 15,6 C 90 % 1009,3 hPa 0,0 l/m 0 min 0 min 12 W/m 25,7 km/h (4 Bft) 97,87 %
01.11.2020 16:36 17,9 C 16,7 C 15,6 C 90 % 1009,3 hPa 0,0 l/m 0 min 0 min 11 W/m 22,5 km/h (4 Bft) 97,83 %
01.11.2020 16:38 17,9 C 16,7 C 15,6 C 90 % 1009,3 hPa 0,0 l/m 0 min 0 min 11 W/m 35,4 km/h (5 Bft) 95,74 %
01.11.2020 16:40 17,9 C 16,7 C 15,6 C 90 % 1009,3 hPa 0,0 l/m 0 min 0 min 14 W/m 25,7 km/h (4 Bft) 97,87 %
01.11.2020 16:42 17,9 C 16,7 C 15,6 C 90 % 1009,2 hPa 0,0 l/m 0 min 0 min 15 W/m 16,1 km/h (3 Bft) 97,87 %
01.11.2020 16:44 17,9 C 16,7 C 15,6 C 91 % 1009,3 hPa 0,0 l/m 0 min 0 min 11 W/m 16,1 km/h (3 Bft) 97,87 %
01.11.2020 16:46 17,9 C 16,7 C 15,6 C 90 % 1009,3 hPa 0,0 l/m 0 min 0 min 6 W/m 22,5 km/h (4 Bft) 93,62 %
01.11.2020 16:48 17,8 C 16,7 C 15,6 C 90 % 1009,3 hPa 0,0 l/m 0 min 0 min 5 W/m 25,7 km/h (4 Bft) 97,87 %
01.11.2020 16:50 17,8 C 16,7 C 15,6 C 90 % 1009,3 hPa 0,0 l/m 0 min 0 min 6 W/m 22,5 km/h (4 Bft) 95,65 %
01.11.2020 16:52 17,8 C 17,2 C 16,1 C 90 % 1009,2 hPa 0,0 l/m 0 min 0 min 6 W/m 16,1 km/h (3 Bft) 97,87 %
01.11.2020 16:54 17,8 C 17,2 C 15,6 C 90 % 1009,3 hPa 0,0 l/m 0 min 0 min 1 W/m 19,3 km/h (3 Bft) 97,87 %
01.11.2020 16:56 17,8 C 17,2 C 15,6 C 90 % 1009,4 hPa 0,0 l/m 0 min 0 min 1 W/m 25,7 km/h (4 Bft) 97,87 %
01.11.2020 16:58 17,8 C 17,2 C 16,1 C 90 % 1009,3 hPa 0,0 l/m 0 min 0 min 5 W/m 25,7 km/h (4 Bft) 97,87 %
01.11.2020 17:00 17,8 C 16,7 C 15,6 C 90 % 1009,3 hPa 0,0 l/m 0 min 0 min 1 W/m 22,5 km/h (4 Bft) 97,83 %
01.11.2020 17:02 17,8 C 17,2 C 15,6 C 90 % 1009,2 hPa 0,0 l/m 0 min 0 min 0 W/m 22,5 km/h (4 Bft) 95,74 %
01.11.2020 17:04 17,8 C 17,2 C 16,1 C 90 % 1009,1 hPa 0,0 l/m 0 min 0 min 0 W/m 35,4 km/h (5 Bft) 97,87 %
01.11.2020 17:06 17,8 C 16,7 C 16,1 C 90 % 1009,1 hPa 0,0 l/m 0 min 0 min 0 W/m 25,7 km/h (4 Bft) 93,62 %
01.11.2020 17:08 17,8 C 16,7 C 15,6 C 90 % 1009,1 hPa 0,0 l/m 0 min 0 min 0 W/m 19,3 km/h (3 Bft) 97,87 %
01.11.2020 17:10 17,8 C 16,7 C 15,6 C 90 % 1009,3 hPa 0,0 l/m 0 min 0 min 0 W/m 32,2 km/h (5 Bft) 97,87 %
01.11.2020 17:12 17,8 C 16,7 C 15,6 C 90 % 1009,3 hPa 0,0 l/m 0 min 0 min 0 W/m 22,5 km/h (4 Bft) 95,65 %
01.11.2020 17:14 17,8 C 16,7 C 15,6 C 90 % 1009,2 hPa 0,0 l/m 0 min 0 min 0 W/m 32,2 km/h (5 Bft) 97,87 %
01.11.2020 17:16 17,8 C 16,7 C 15,6 C 90 % 1009,2 hPa 0,0 l/m 0 min 0 min 0 W/m 41,8 km/h (6 Bft) 95,74 %
01.11.2020 17:18 17,8 C 16,7 C 15,6 C 90 % 1009,2 hPa 0,0 l/m 0 min 0 min 0 W/m 22,5 km/h (4 Bft) 95,74 %
01.11.2020 17:20 17,7 C 16,7 C 15,6 C 90 % 1009,2 hPa 0,0 l/m 0 min 0 min 0 W/m 22,5 km/h (4 Bft) 95,74 %
01.11.2020 17:22 17,7 C 16,7 C 15,6 C 91 % 1009,2 hPa 0,0 l/m 0 min 0 min 0 W/m 16,1 km/h (3 Bft) 95,74 %
01.11.2020 17:24 17,7 C 16,7 C 15,6 C 91 % 1009,2 hPa 0,0 l/m 0 min 0 min 0 W/m 16,1 km/h (3 Bft) 96,43 %
01.11.2020 17:26 17,7 C 16,7 C 15,6 C 91 % 1009,3 hPa 0,0 l/m 0 min 0 min 0 W/m 25,7 km/h (4 Bft) 97,87 %
01.11.2020 17:28 17,6 C 16,7 C 15,6 C 91 % 1009,4 hPa 0,0 l/m 0 min 0 min 0 W/m 32,2 km/h (5 Bft) 97,83 %
01.11.2020 17:30 17,6 C 16,7 C 15,6 C 91 % 1009,4 hPa 0,0 l/m 0 min 0 min 0 W/m 22,5 km/h (4 Bft) 97,87 %
01.11.2020 17:32 17,6 C 16,7 C 15,6 C 91 % 1009,4 hPa 0,0 l/m 0 min 0 min 0 W/m 19,3 km/h (3 Bft) 95,83 %
01.11.2020 17:34 17,6 C 16,7 C 15,6 C 91 % 1009,6 hPa 0,0 l/m 0 min 0 min 0 W/m 19,3 km/h (3 Bft) 97,87 %
01.11.2020 17:36 17,6 C 16,7 C 15,6 C 91 % 1009,7 hPa 0,0 l/m 0 min 0 min 0 W/m 12,9 km/h (3 Bft) 93,62 %
01.11.2020 17:38 17,6 C 16,7 C 15,6 C 91 % 1009,6 hPa 0,0 l/m 0 min 0 min 0 W/m 19,3 km/h (3 Bft) 97,83 %
01.11.2020 17:40 17,6 C 16,7 C 15,6 C 91 % 1009,7 hPa 0,0 l/m 0 min 0 min 0 W/m 32,2 km/h (5 Bft) 97,87 %
01.11.2020 17:42 17,6 C 16,7 C 15,6 C 91 % 1009,5 hPa 0,0 l/m 0 min 0 min 0 W/m 22,5 km/h (4 Bft) 95,74 %
01.11.2020 17:44 17,6 C 16,7 C 15,6 C 91 % 1009,4 hPa 0,0 l/m 0 min 0 min 0 W/m 25,7 km/h (4 Bft) 97,87 %
01.11.2020 17:46 17,6 C 16,7 C 15,6 C 91 % 1009,4 hPa 0,0 l/m 0 min 0 min 0 W/m 22,5 km/h (4 Bft) 97,87 %
01.11.2020 17:48 17,6 C 16,7 C 15,6 C 91 % 1009,4 hPa 0,0 l/m 0 min 0 min 0 W/m 12,9 km/h (3 Bft) 97,87 %
01.11.2020 17:50 17,6 C 16,7 C 15,6 C 91 % 1009,4 hPa 0,0 l/m 0 min 0 min 0 W/m 19,3 km/h (3 Bft) 97,83 %
01.11.2020 17:52 17,6 C 16,7 C 15,6 C 91 % 1009,3 hPa 0,0 l/m 0 min 0 min 0 W/m 22,5 km/h (4 Bft) 95,74 %
01.11.2020 17:54 17,6 C 16,7 C 15,6 C 91 % 1009,3 hPa 0,0 l/m 0 min 0 min 0 W/m 19,3 km/h (3 Bft) 91,49 %
01.11.2020 17:56 17,6 C 16,7 C 15,6 C 91 % 1009,2 hPa 0,0 l/m 0 min 0 min 0 W/m 16,1 km/h (3 Bft) 97,87 %
01.11.2020 17:58 17,6 C 16,7 C 15,6 C 91 % 1009,3 hPa 0,0 l/m 0 min 0 min 0 W/m 19,3 km/h (3 Bft) 97,87 %
01.11.2020 18:00 17,6 C 16,7 C 15,6 C 91 % 1009,3 hPa 0,0 l/m 0 min 0 min 0 W/m 16,1 km/h (3 Bft) 97,87 %
01.11.2020 18:02 17,6 C 16,7 C 15,6 C 91 % 1009,3 hPa 0,0 l/m 0 min 0 min 0 W/m 22,5 km/h (4 Bft) 97,22 %
01.11.2020 18:04 17,6 C 16,7 C 15,6 C 91 % 1009,3 hPa 0,0 l/m 0 min 0 min 0 W/m 12,9 km/h (3 Bft) 97,83 %
01.11.2020 18:08 17,6 C 16,7 C 15,6 C 91 % 1009,3 hPa 0,0 l/m 0 min 0 min 0 W/m 38,6 km/h (5 Bft) 98,98 %
01.11.2020 18:10 17,6 C 17,2 C 16,1 C 91 % 1009,3 hPa 0,0 l/m 0 min 0 min 0 W/m 29,0 km/h (5 Bft) 97,83 %
01.11.2020 18:12 17,6 C 17,2 C 16,1 C 91 % 1009,2 hPa 0,0 l/m 0 min 0 min 0 W/m 16,1 km/h (3 Bft) 97,87 %
01.11.2020 18:14 17,6 C 17,2 C 16,1 C 90 % 1009,3 hPa 0,0 l/m 0 min 0 min 0 W/m 29,0 km/h (5 Bft) 97,87 %
01.11.2020 18:16 17,6 C 17,2 C 16,1 C 90 % 1009,3 hPa 0,0 l/m 0 min 0 min 0 W/m 25,7 km/h (4 Bft) 95,74 %
01.11.2020 18:18 17,6 C 17,2 C 15,6 C 90 % 1009,2 hPa 0,0 l/m 0 min 0 min 0 W/m 22,5 km/h (4 Bft) 97,87 %
01.11.2020 18:20 17,6 C 17,2 C 15,6 C 90 % 1009,2 hPa 0,0 l/m 0 min 0 min 0 W/m 19,3 km/h (3 Bft) 100,00 %
01.11.2020 18:22 17,6 C 17,2 C 15,6 C 90 % 1009,2 hPa 0,0 l/m 0 min 0 min 0 W/m 25,7 km/h (4 Bft) 97,83 %
01.11.2020 18:24 17,6 C 17,2 C 15,6 C 90 % 1009,3 hPa 0,0 l/m 0 min 0 min 0 W/m 22,5 km/h (4 Bft) 97,87 %
01.11.2020 18:26 17,6 C 16,7 C 15,6 C 90 % 1009,2 hPa 0,0 l/m 0 min 0 min 0 W/m 16,1 km/h (3 Bft) 97,87 %
01.11.2020 18:28 17,6 C 17,2 C 15,6 C 90 % 1009,2 hPa 0,0 l/m 0 min 0 min 0 W/m 25,7 km/h (4 Bft) 97,87 %
01.11.2020 18:30 17,7 C 17,2 C 16,1 C 90 % 1009,2 hPa 0,0 l/m 0 min 0 min 0 W/m 35,4 km/h (5 Bft) 97,87 %
01.11.2020 18:32 17,7 C 17,2 C 16,1 C 90 % 1009,2 hPa 0,0 l/m 0 min 0 min 0 W/m 29,0 km/h (5 Bft) 97,83 %
01.11.2020 18:34 17,7 C 17,2 C 16,1 C 90 % 1009,1 hPa 0,0 l/m 0 min 0 min 0 W/m 29,0 km/h (5 Bft) 97,87 %
01.11.2020 18:36 17,7 C 17,2 C 16,1 C 90 % 1009,3 hPa 0,0 l/m 0 min 0 min 0 W/m 16,1 km/h (3 Bft) 97,87 %
01.11.2020 18:38 17,7 C 17,2 C 16,1 C 90 % 1009,3 hPa 0,0 l/m 0 min 0 min 0 W/m 25,7 km/h (4 Bft) 97,87 %
01.11.2020 18:40 17,7 C 17,2 C 16,1 C 90 % 1009,2 hPa 0,0 l/m 0 min 0 min 0 W/m 22,5 km/h (4 Bft) 97,87 %
01.11.2020 18:42 17,7 C 17,2 C 16,1 C 90 % 1009,3 hPa 0,0 l/m 0 min 0 min 0 W/m 32,2 km/h (5 Bft) 97,87 %
01.11.2020 18:44 17,8 C 17,2 C 16,1 C 90 % 1009,2 hPa 0,0 l/m 0 min 0 min 0 W/m 29,0 km/h (5 Bft) 97,83 %
01.11.2020 18:46 17,8 C 16,7 C 15,6 C 90 % 1009,3 hPa 0,0 l/m 0 min 0 min 0 W/m 22,5 km/h (4 Bft) 97,87 %
01.11.2020 18:48 17,8 C 16,7 C 15,6 C 90 % 1009,2 hPa 0,0 l/m 0 min 0 min 0 W/m 19,3 km/h (3 Bft) 97,87 %
01.11.2020 18:50 17,8 C 16,7 C 15,6 C 90 % 1009,2 hPa 0,0 l/m 0 min 0 min 0 W/m 22,5 km/h (4 Bft) 97,87 %
01.11.2020 18:52 17,8 C 16,7 C 16,1 C 90 % 1009,2 hPa 0,0 l/m 0 min 0 min 0 W/m 45,1 km/h (6 Bft) 95,74 %
01.11.2020 18:54 17,8 C 17,2 C 16,1 C 90 % 1009,2 hPa 0,0 l/m 0 min 0 min 0 W/m 32,2 km/h (5 Bft) 97,87 %
01.11.2020 18:56 17,8 C 16,7 C 15,6 C 90 % 1009,2 hPa 0,0 l/m 0 min 0 min 0 W/m 25,7 km/h (4 Bft) 97,83 %
01.11.2020 18:58 17,8 C 16,7 C 15,6 C 90 % 1009,3 hPa 0,0 l/m 0 min 0 min 0 W/m 29,0 km/h (5 Bft) 95,74 %
01.11.2020 19:00 17,8 C 16,7 C 15,6 C 90 % 1009,4 hPa 0,0 l/m 0 min 0 min 0 W/m 25,7 km/h (4 Bft) 97,87 %
01.11.2020 19:02 17,8 C 16,7 C 15,6 C 90 % 1009,1 hPa 0,0 l/m 0 min 0 min 0 W/m 16,1 km/h (3 Bft) 97,87 %
01.11.2020 19:04 17,8 C 16,7 C 15,6 C 90 % 1009,4 hPa 0,0 l/m 0 min 0 min 0 W/m 38,6 km/h (5 Bft) 97,87 %
01.11.2020 19:06 17,8 C 16,7 C 15,6 C 90 % 1009,3 hPa 0,0 l/m 0 min 0 min 0 W/m 22,5 km/h (4 Bft) 95,74 %
01.11.2020 19:08 17,8 C 16,7 C 15,6 C 90 % 1009,3 hPa 0,0 l/m 0 min 0 min 0 W/m 32,2 km/h (5 Bft) 97,83 %
01.11.2020 19:10 17,7 C 16,7 C 15,6 C 90 % 1009,3 hPa 0,0 l/m 0 min 0 min 0 W/m 6,4 km/h (2 Bft) 97,87 %
01.11.2020 19:12 17,7 C 16,7 C 15,6 C 90 % 1009,3 hPa 0,0 l/m 0 min 0 min 0 W/m 12,9 km/h (3 Bft) 97,87 %
01.11.2020 19:14 17,7 C 16,7 C 15,6 C 90 % 1009,3 hPa 0,0 l/m 0 min 0 min 0 W/m 6,4 km/h (2 Bft) 97,87 %
01.11.2020 19:16 17,7 C 16,7 C 15,6 C 90 % 1009,5 hPa 0,0 l/m 0 min 0 min 0 W/m 9,7 km/h (2 Bft) 97,87 %
01.11.2020 19:18 17,6 C 16,7 C 15,6 C 90 % 1009,4 hPa 0,0 l/m 0 min 0 min 0 W/m 19,3 km/h (3 Bft) 97,87 %
01.11.2020 19:20 17,6 C 16,7 C 15,6 C 90 % 1009,5 hPa 0,0 l/m 0 min 0 min 0 W/m 29,0 km/h (5 Bft) 100,00 %
01.11.2020 19:22 17,6 C 16,7 C 15,6 C 90 % 1009,5 hPa 0,0 l/m 0 min 0 min 0 W/m 22,5 km/h (4 Bft) 100,00 %
01.11.2020 19:24 17,6 C 17,2 C 15,6 C 90 % 1009,5 hPa 0,0 l/m 0 min 0 min 0 W/m 22,5 km/h (4 Bft) 100,00 %
01.11.2020 19:26 17,6 C 16,7 C 15,6 C 90 % 1009,4 hPa 0,0 l/m 0 min 0 min 0 W/m 19,3 km/h (3 Bft) 100,00 %
01.11.2020 19:28 17,6 C 17,2 C 15,6 C 90 % 1009,7 hPa 0,0 l/m 0 min 0 min 0 W/m 25,7 km/h (4 Bft) 97,87 %
01.11.2020 19:30 17,6 C 16,7 C 16,1 C 90 % 1009,4 hPa 0,0 l/m 0 min 0 min 0 W/m 38,6 km/h (5 Bft) 100,00 %
01.11.2020 19:32 17,7 C 16,7 C 15,6 C 91 % 1009,5 hPa 0,0 l/m 0 min 0 min 0 W/m 32,2 km/h (5 Bft) 97,83 %
01.11.2020 19:34 17,7 C 16,7 C 16,1 C 91 % 1009,5 hPa 0,0 l/m 0 min 0 min 0 W/m 19,3 km/h (3 Bft) 97,87 %
01.11.2020 19:36 17,7 C 16,7 C 15,6 C 90 % 1009,5 hPa 0,0 l/m 0 min 0 min 0 W/m 19,3 km/h (3 Bft) 100,00 %
01.11.2020 19:38 17,7 C 16,7 C 15,6 C 91 % 1009,5 hPa 0,0 l/m 0 min 0 min 0 W/m 16,1 km/h (3 Bft) 100,00 %
01.11.2020 19:40 17,7 C 16,7 C 15,6 C 91 % 1009,4 hPa 0,0 l/m 0 min 0 min 0 W/m 12,9 km/h (3 Bft) 100,00 %
01.11.2020 19:42 17,7 C 16,7 C 15,6 C 91 % 1009,4 hPa 0,0 l/m 0 min 0 min 0 W/m 29,0 km/h (5 Bft) 100,00 %
01.11.2020 19:44 17,7 C 16,7 C 15,6 C 91 % 1009,5 hPa 0,0 l/m 0 min 0 min 0 W/m 19,3 km/h (3 Bft) 100,00 %
01.11.2020 19:46 17,7 C 16,7 C 15,6 C 91 % 1009,7 hPa 0,0 l/m 0 min 0 min 0 W/m 25,7 km/h (4 Bft) 97,87 %
01.11.2020 19:48 17,7 C 16,7 C 15,6 C 91 % 1009,5 hPa 0,0 l/m 0 min 0 min 0 W/m 32,2 km/h (5 Bft) 97,87 %
01.11.2020 19:50 17,7 C 16,7 C 15,6 C 91 % 1009,5 hPa 0,0 l/m 0 min 0 min 0 W/m 16,1 km/h (3 Bft) 95,74 %
01.11.2020 19:52 17,7 C 17,2 C 16,1 C 91 % 1009,5 hPa 0,0 l/m 0 min 0 min 0 W/m 22,5 km/h (4 Bft) 97,87 %
01.11.2020 19:54 17,8 C 17,2 C 16,1 C 90 % 1009,5 hPa 0,0 l/m 0 min 0 min 0 W/m 29,0 km/h (5 Bft) 97,83 %
01.11.2020 19:56 17,8 C 17,2 C 16,1 C 90 % 1009,4 hPa 0,0 l/m 0 min 2 min 0 W/m 19,3 km/h (3 Bft) 95,74 %
01.11.2020 19:58 17,8 C 17,2 C 16,1 C 90 % 1009,4 hPa 0,0 l/m 0 min 2 min 0 W/m 16,1 km/h (3 Bft) 93,62 %
01.11.2020 20:00 17,8 C 16,7 C 15,6 C 90 % 1009,4 hPa 0,0 l/m 0 min 2 min 0 W/m 29,0 km/h (5 Bft) 95,74 %
01.11.2020 20:02 17,8 C 16,7 C 15,6 C 90 % 1009,3 hPa 0,0 l/m 0 min 0 min 0 W/m 25,7 km/h (4 Bft) 95,74 %
01.11.2020 20:04 17,8 C 16,7 C 15,6 C 90 % 1009,3 hPa 0,0 l/m 0 min 0 min 0 W/m 12,9 km/h (3 Bft) 95,74 %
01.11.2020 20:06 17,8 C 17,2 C 15,6 C 90 % 1009,3 hPa 0,0 l/m 0 min 0 min 0 W/m 25,7 km/h (4 Bft) 95,65 %
01.11.2020 20:08 17,8 C 17,2 C 15,6 C 90 % 1009,5 hPa 0,0 l/m 0 min 0 min 0 W/m 12,9 km/h (3 Bft) 95,74 %
01.11.2020 20:10 17,8 C 17,2 C 16,1 C 90 % 1009,4 hPa 0,0 l/m 0 min 0 min 0 W/m 12,9 km/h (3 Bft) 95,74 %
01.11.2020 20:12 17,9 C 17,2 C 16,1 C 90 % 1009,4 hPa 0,0 l/m 0 min 0 min 0 W/m 41,8 km/h (6 Bft) 95,74 %
01.11.2020 20:14 17,9 C 17,2 C 16,1 C 91 % 1009,4 hPa 0,0 l/m 0 min 0 min 0 W/m 29,0 km/h (5 Bft) 95,74 %
01.11.2020 20:16 17,9 C 17,2 C 16,1 C 91 % 1009,5 hPa 0,0 l/m 0 min 0 min 0 W/m 12,9 km/h (3 Bft) 93,62 %
01.11.2020 20:18 17,9 C 17,2 C 16,1 C 90 % 1009,5 hPa 0,0 l/m 0 min 0 min 0 W/m 38,6 km/h (5 Bft) 95,65 %
01.11.2020 20:20 17,9 C 17,2 C 16,1 C 90 % 1009,5 hPa 0,0 l/m 0 min 0 min 0 W/m 22,5 km/h (4 Bft) 95,74 %
01.11.2020 20:22 18,0 C 16,7 C 16,1 C 91 % 1009,5 hPa 0,0 l/m 0 min 0 min 0 W/m 38,6 km/h (5 Bft) 95,74 %
01.11.2020 20:24 18,0 C 16,7 C 16,1 C 91 % 1009,5 hPa 0,0 l/m 0 min 0 min 0 W/m 32,2 km/h (5 Bft) 95,74 %
01.11.2020 20:26 17,9 C 17,2 C 16,1 C 91 % 1009,4 hPa 0,0 l/m 0 min 0 min 0 W/m 29,0 km/h (5 Bft) 95,74 %
01.11.2020 20:28 17,9 C 17,2 C 16,1 C 91 % 1009,4 hPa 0,0 l/m 0 min 0 min 0 W/m 25,7 km/h (4 Bft) 95,74 %
01.11.2020 20:30 17,9 C 17,2 C 16,1 C 91 % 1009,3 hPa 0,0 l/m 0 min 0 min 0 W/m 12,9 km/h (3 Bft) 95,65 %
01.11.2020 20:32 17,9 C 17,2 C 16,1 C 91 % 1009,5 hPa 0,0 l/m 0 min 0 min 0 W/m 12,9 km/h (3 Bft) 92,59 %
01.11.2020 20:34 17,9 C 17,2 C 16,1 C 91 % 1009,4 hPa 0,0 l/m 0 min 0 min 0 W/m 35,4 km/h (5 Bft) 95,65 %
01.11.2020 20:36 17,9 C 17,2 C 16,1 C 91 % 1009,4 hPa 0,0 l/m 0 min 0 min 0 W/m 29,0 km/h (5 Bft) 95,74 %
01.11.2020 20:38 17,9 C 16,1 C 15,6 C 91 % 1009,4 hPa 0,0 l/m 0 min 2 min 0 W/m 16,1 km/h (3 Bft) 95,74 %
01.11.2020 20:40 17,9 C 16,1 C 15,0 C 91 % 1009,4 hPa 0,0 l/m 0 min 2 min 0 W/m 16,1 km/h (3 Bft) 95,74 %
01.11.2020 20:42 17,9 C 16,1 C 15,0 C 91 % 1009,3 hPa 0,0 l/m 0 min 2 min 0 W/m 16,1 km/h (3 Bft) 95,12 %
01.11.2020 20:44 17,9 C 16,1 C 15,0 C 91 % 1009,4 hPa 0,0 l/m 0 min 2 min 0 W/m 19,3 km/h (3 Bft) 97,87 %
01.11.2020 20:46 17,9 C 16,1 C 15,0 C 91 % 1009,3 hPa 0,0 l/m 0 min 2 min 0 W/m 32,2 km/h (5 Bft) 97,92 %
01.11.2020 20:48 17,9 C 15,6 C 14,5 C 91 % 1009,3 hPa 0,0 l/m 0 min 2 min 0 W/m 25,7 km/h (4 Bft) 95,83 %
01.11.2020 20:50 17,9 C 15,6 C 14,5 C 91 % 1009,3 hPa 0,0 l/m 0 min 2 min 0 W/m 19,3 km/h (3 Bft) 97,92 %
01.11.2020 20:52 17,9 C 16,1 C 14,5 C 91 % 1009,3 hPa 0,0 l/m 0 min 2 min 0 W/m 32,2 km/h (5 Bft) 97,83 %
01.11.2020 20:54 17,9 C 16,1 C 14,5 C 91 % 1009,2 hPa 0,0 l/m 0 min 2 min 0 W/m 25,7 km/h (4 Bft) 100,00 %
01.11.2020 20:56 17,9 C 16,1 C 14,5 C 91 % 1009,2 hPa 0,0 l/m 0 min 2 min 0 W/m 19,3 km/h (3 Bft) 95,83 %
01.11.2020 20:58 17,9 C 16,1 C 14,5 C 91 % 1009,2 hPa 0,0 l/m 0 min 2 min 0 W/m 19,3 km/h (3 Bft) 97,87 %
01.11.2020 21:00 17,8 C 16,1 C 14,5 C 91 % 1009,2 hPa 0,0 l/m 0 min 2 min 0 W/m 12,9 km/h (3 Bft) 100,00 %
01.11.2020 21:02 17,8 C 16,1 C 15,0 C 91 % 1009,2 hPa 0,0 l/m 0 min 0 min 0 W/m 19,3 km/h (3 Bft) 100,00 %
01.11.2020 21:04 17,8 C 16,1 C 15,0 C 91 % 1009,2 hPa 0,0 l/m 0 min 0 min 0 W/m 25,7 km/h (4 Bft) 97,87 %
01.11.2020 21:06 17,8 C 16,7 C 15,0 C 91 % 1009,2 hPa 0,0 l/m 0 min 2 min 0 W/m 19,3 km/h (3 Bft) 97,87 %
01.11.2020 21:08 17,8 C 16,7 C 15,0 C 91 % 1009,2 hPa 0,0 l/m 0 min 0 min 0 W/m 6,4 km/h (2 Bft) 97,83 %
01.11.2020 21:10 17,8 C 16,7 C 15,0 C 91 % 1009,2 hPa 0,0 l/m 0 min 0 min 0 W/m 19,3 km/h (3 Bft) 100,00 %
01.11.2020 21:12 17,8 C 16,7 C 15,6 C 91 % 1009,2 hPa 0,0 l/m 0 min 0 min 0 W/m 12,9 km/h (3 Bft) 100,00 %
01.11.2020 21:14 17,8 C 16,7 C 15,6 C 91 % 1009,2 hPa 0,0 l/m 0 min 0 min 0 W/m 12,9 km/h (3 Bft) 100,00 %
01.11.2020 21:16 17,8 C 17,2 C 15,6 C 91 % 1009,2 hPa 0,0 l/m 0 min 0 min 0 W/m 16,1 km/h (3 Bft) 100,00 %
01.11.2020 21:18 17,8 C 17,2 C 15,6 C 91 % 1009,2 hPa 0,0 l/m 0 min 0 min 0 W/m 12,9 km/h (3 Bft) 97,56 %
01.11.2020 21:20 17,8 C 17,2 C 16,1 C 91 % 1009,1 hPa 0,0 l/m 0 min 0 min 0 W/m 16,1 km/h (3 Bft) 100,00 %
01.11.2020 21:22 17,8 C 17,2 C 16,1 C 91 % 1009,1 hPa 0,0 l/m 0 min 0 min 0 W/m 3,2 km/h (1 Bft) 100,00 %
01.11.2020 21:24 17,8 C 17,2 C 16,1 C 91 % 1009,2 hPa 0,0 l/m 0 min 0 min 0 W/m 29,0 km/h (5 Bft) 100,00 %
01.11.2020 21:26 17,8 C 17,2 C 16,1 C 91 % 1009,1 hPa 0,0 l/m 0 min 0 min 0 W/m 22,5 km/h (4 Bft) 100,00 %
01.11.2020 21:28 17,8 C 17,2 C 16,1 C 91 % 1009,0 hPa 0,0 l/m 0 min 0 min 0 W/m 32,2 km/h (5 Bft) 97,87 %
01.11.2020 21:30 17,8 C 17,2 C 16,1 C 91 % 1009,1 hPa 0,0 l/m 0 min 0 min 0 W/m 38,6 km/h (5 Bft) 97,87 %
01.11.2020 21:32 17,8 C 17,2 C 16,1 C 91 % 1009,2 hPa 0,0 l/m 0 min 0 min 0 W/m 25,7 km/h (4 Bft) 97,87 %
01.11.2020 21:34 17,9 C 17,2 C 16,1 C 91 % 1009,1 hPa 0,0 l/m 0 min 0 min 0 W/m 22,5 km/h (4 Bft) 97,87 %
01.11.2020 21:36 17,9 C 17,2 C 16,1 C 91 % 1009,2 hPa 0,0 l/m 0 min 0 min 0 W/m 16,1 km/h (3 Bft) 93,62 %
01.11.2020 21:38 17,9 C 17,2 C 16,1 C 91 % 1009,1 hPa 0,0 l/m 0 min 0 min 0 W/m 19,3 km/h (3 Bft) 97,83 %
01.11.2020 21:40 17,9 C 17,2 C 16,1 C 91 % 1009,1 hPa 0,0 l/m 0 min 0 min 0 W/m 6,4 km/h (2 Bft) 97,92 %
01.11.2020 21:42 17,9 C 17,2 C 16,1 C 91 % 1009,2 hPa 0,0 l/m 0 min 0 min 0 W/m 22,5 km/h (4 Bft) 97,87 %
01.11.2020 21:44 17,9 C 17,2 C 16,1 C 91 % 1009,2 hPa 0,0 l/m 0 min 0 min 0 W/m 25,7 km/h (4 Bft) 97,87 %
01.11.2020 21:46 17,9 C 17,2 C 16,1 C 91 % 1009,2 hPa 0,0 l/m 0 min 0 min 0 W/m 19,3 km/h (3 Bft) 95,83 %
01.11.2020 21:48 17,9 C 17,2 C 16,1 C 91 % 1009,1 hPa 0,0 l/m 0 min 0 min 0 W/m 19,3 km/h (3 Bft) 97,92 %
01.11.2020 21:50 17,9 C 17,2 C 16,1 C 91 % 1009,2 hPa 0,0 l/m 0 min 0 min 0 W/m 29,0 km/h (5 Bft) 97,87 %
01.11.2020 21:55 17,9 C 17,2 C 16,1 C 91 % 1009,0 hPa 0,0 l/m 0 min 0 min 0 W/m 16,1 km/h (3 Bft) 97,14 %
01.11.2020 21:56 17,9 C 17,2 C 16,1 C 91 % 1009,0 hPa 0,0 l/m 0 min 0 min 0 W/m 6,4 km/h (2 Bft) 100,00 %
01.11.2020 21:58 17,9 C 17,2 C 16,1 C 91 % 1009,0 hPa 0,0 l/m 0 min 0 min 0 W/m 22,5 km/h (4 Bft) 97,87 %
01.11.2020 22:00 17,9 C 17,2 C 16,1 C 91 % 1008,9 hPa 0,0 l/m 0 min 0 min 0 W/m 25,7 km/h (4 Bft) 95,74 %
01.11.2020 22:02 17,9 C 17,2 C 16,1 C 91 % 1008,7 hPa 0,0 l/m 0 min 0 min 0 W/m 19,3 km/h (3 Bft) 97,92 %
01.11.2020 22:04 17,9 C 17,2 C 16,1 C 91 % 1008,8 hPa 0,0 l/m 0 min 0 min 0 W/m 16,1 km/h (3 Bft) 97,14 %
01.11.2020 22:06 17,9 C 17,2 C 16,1 C 91 % 1008,8 hPa 0,0 l/m 0 min 0 min 0 W/m 25,7 km/h (4 Bft) 97,87 %
01.11.2020 22:08 17,9 C 17,2 C 16,1 C 91 % 1008,9 hPa 0,0 l/m 0 min 0 min 0 W/m 16,1 km/h (3 Bft) 96,55 %
01.11.2020 22:10 17,9 C 17,2 C 16,1 C 91 % 1008,9 hPa 0,0 l/m 0 min 0 min 0 W/m 22,5 km/h (4 Bft) 97,62 %
01.11.2020 22:12 17,9 C 17,2 C 16,1 C 91 % 1009,0 hPa 0,0 l/m 0 min 0 min 0 W/m 35,4 km/h (5 Bft) 100,00 %
01.11.2020 22:14 17,9 C 17,2 C 16,1 C 91 % 1009,0 hPa 0,0 l/m 0 min 0 min 0 W/m 22,5 km/h (4 Bft) 95,74 %
01.11.2020 22:16 17,9 C 17,2 C 16,1 C 90 % 1009,0 hPa 0,0 l/m 0 min 0 min 0 W/m 22,5 km/h (4 Bft) 98,31 %
01.11.2020 22:18 17,9 C 17,2 C 16,1 C 90 % 1008,9 hPa 0,0 l/m 0 min 2 min 0 W/m 6,4 km/h (2 Bft) 97,22 %
01.11.2020 22:20 17,9 C 17,2 C 15,6 C 91 % 1008,9 hPa 0,0 l/m 0 min 2 min 0 W/m 16,1 km/h (3 Bft) 100,00 %
01.11.2020 22:22 17,9 C 16,7 C 15,6 C 91 % 1008,9 hPa 0,0 l/m 0 min 2 min 0 W/m 29,0 km/h (5 Bft) 100,00 %
01.11.2020 22:24 17,9 C 17,2 C 15,6 C 91 % 1008,9 hPa 0,0 l/m 0 min 0 min 0 W/m 19,3 km/h (3 Bft) 100,00 %
01.11.2020 22:26 17,9 C 16,7 C 15,6 C 91 % 1008,8 hPa 0,0 l/m 0 min 2 min 0 W/m 25,7 km/h (4 Bft) 96,61 %
01.11.2020 22:28 17,9 C 16,7 C 15,6 C 91 % 1008,7 hPa 0,0 l/m 0 min 0 min 0 W/m 22,5 km/h (4 Bft) 97,14 %
01.11.2020 22:30 17,9 C 16,7 C 15,6 C 91 % 1008,7 hPa 0,0 l/m 0 min 0 min 0 W/m 19,3 km/h (3 Bft) 98,28 %
01.11.2020 22:32 17,9 C 16,7 C 15,6 C 91 % 1008,8 hPa 0,0 l/m 0 min 2 min 0 W/m 12,9 km/h (3 Bft) 95,74 %
01.11.2020 22:34 17,9 C 16,7 C 15,6 C 91 % 1008,8 hPa 0,0 l/m 0 min 0 min 0 W/m 22,5 km/h (4 Bft) 100,00 %
01.11.2020 22:36 17,9 C 16,7 C 15,6 C 91 % 1008,7 hPa 0,0 l/m 0 min 0 min 0 W/m 25,7 km/h (4 Bft) 94,92 %
01.11.2020 22:38 17,9 C 16,7 C 15,6 C 91 % 1008,7 hPa 0,0 l/m 0 min 0 min 0 W/m 29,0 km/h (5 Bft) 97,56 %
01.11.2020 22:40 17,9 C 17,2 C 15,6 C 91 % 1008,7 hPa 0,0 l/m 0 min 0 min 0 W/m 35,4 km/h (5 Bft) 97,22 %
01.11.2020 22:42 17,9 C 17,2 C 15,6 C 91 % 1008,7 hPa 0,0 l/m 0 min 0 min 0 W/m 19,3 km/h (3 Bft) 97,92 %
01.11.2020 22:44 17,9 C 17,2 C 15,6 C 91 % 1008,6 hPa 0,0 l/m 0 min 0 min 0 W/m 25,7 km/h (4 Bft) 98,31 %
01.11.2020 22:46 17,9 C 17,2 C 16,1 C 91 % 1008,6 hPa 0,0 l/m 0 min 0 min 0 W/m 25,7 km/h (4 Bft) 97,92 %
01.11.2020 22:48 17,9 C 17,2 C 16,1 C 91 % 1008,6 hPa 0,0 l/m 0 min 0 min 0 W/m 22,5 km/h (4 Bft) 97,87 %
01.11.2020 22:50 17,9 C 17,2 C 16,1 C 91 % 1008,6 hPa 0,0 l/m 0 min 0 min 0 W/m 19,3 km/h (3 Bft) 97,22 %
01.11.2020 22:52 17,9 C 17,2 C 16,1 C 91 % 1008,6 hPa 0,0 l/m 0 min 0 min 0 W/m 22,5 km/h (4 Bft) 96,61 %
01.11.2020 22:54 17,9 C 16,7 C 16,1 C 91 % 1008,5 hPa 0,0 l/m 0 min 0 min 0 W/m 22,5 km/h (4 Bft) 97,22 %
01.11.2020 22:56 17,9 C 16,7 C 16,1 C 91 % 1008,5 hPa 0,0 l/m 0 min 0 min 0 W/m 12,9 km/h (3 Bft) 98,28 %
01.11.2020 22:58 17,9 C 16,7 C 16,1 C 91 % 1008,4 hPa 0,0 l/m 0 min 0 min 0 W/m 16,1 km/h (3 Bft) 97,87 %
01.11.2020 23:00 17,9 C 16,7 C 16,1 C 91 % 1008,5 hPa 0,0 l/m 0 min 0 min 0 W/m 29,0 km/h (5 Bft) 97,87 %
01.11.2020 23:02 17,9 C 17,2 C 16,1 C 91 % 1008,6 hPa 0,0 l/m 0 min 0 min 0 W/m 35,4 km/h (5 Bft) 97,22 %
01.11.2020 23:04 17,9 C 17,2 C 16,1 C 91 % 1008,5 hPa 0,0 l/m 0 min 0 min 0 W/m 22,5 km/h (4 Bft) 97,87 %
01.11.2020 23:06 17,8 C 16,7 C 16,1 C 91 % 1008,7 hPa 0,0 l/m 0 min 0 min 0 W/m 0,0 km/h (0 Bft) 97,87 %
01.11.2020 23:08 17,8 C 17,2 C 16,1 C 91 % 1008,7 hPa 0,0 l/m 0 min 0 min 0 W/m 0,0 km/h (0 Bft) 95,65 %
01.11.2020 23:10 17,8 C 16,7 C 16,1 C 91 % 1008,7 hPa 0,0 l/m 0 min 0 min 0 W/m 12,9 km/h (3 Bft) 95,74 %
01.11.2020 23:12 17,8 C 17,2 C 16,1 C 91 % 1008,7 hPa 0,0 l/m 0 min 0 min 0 W/m 19,3 km/h (3 Bft) 97,62 %
01.11.2020 23:14 17,8 C 17,2 C 16,1 C 91 % 1008,7 hPa 0,0 l/m 0 min 0 min 0 W/m 3,2 km/h (1 Bft) 97,87 %
01.11.2020 23:16 17,8 C 17,2 C 16,1 C 91 % 1008,8 hPa 0,0 l/m 0 min 0 min 0 W/m 16,1 km/h (3 Bft) 97,83 %
01.11.2020 23:18 17,8 C 17,2 C 16,1 C 91 % 1008,8 hPa 0,0 l/m 0 min 0 min 0 W/m 12,9 km/h (3 Bft) 97,87 %
01.11.2020 23:20 17,8 C 17,2 C 16,1 C 91 % 1008,8 hPa 0,0 l/m 0 min 0 min 0 W/m 6,4 km/h (2 Bft) 94,74 %
01.11.2020 23:22 17,8 C 17,2 C 16,1 C 91 % 1008,8 hPa 0,0 l/m 0 min 0 min 0 W/m 0,0 km/h (0 Bft) 95,74 %
01.11.2020 23:24 17,8 C 17,2 C 16,1 C 91 % 1008,6 hPa 0,0 l/m 0 min 0 min 0 W/m 0,0 km/h (0 Bft) 95,74 %
01.11.2020 23:26 17,8 C 17,2 C 16,1 C 91 % 1008,4 hPa 0,0 l/m 0 min 0 min 0 W/m 9,7 km/h (2 Bft) 95,74 %
01.11.2020 23:28 17,8 C 17,2 C 16,1 C 91 % 1008,4 hPa 0,0 l/m 0 min 0 min 0 W/m 0,0 km/h (0 Bft) 97,87 %
01.11.2020 23:30 17,8 C 16,7 C 16,1 C 91 % 1008,4 hPa 0,0 l/m 0 min 0 min 0 W/m 12,9 km/h (3 Bft) 97,83 %
01.11.2020 23:32 17,8 C 16,7 C 16,1 C 91 % 1008,4 hPa 0,0 l/m 0 min 0 min 0 W/m 16,1 km/h (3 Bft) 95,83 %
01.11.2020 23:34 17,8 C 15,6 C 15,0 C 91 % 1008,5 hPa 0,2 l/m 0 min 2 min 0 W/m 12,9 km/h (3 Bft) 93,62 %
01.11.2020 23:36 17,8 C 15,6 C 14,5 C 91 % 1008,5 hPa 0,2 l/m 0 min 2 min 0 W/m 16,1 km/h (3 Bft) 97,87 %
01.11.2020 23:38 17,8 C 15,0 C 14,5 C 92 % 1008,5 hPa 0,2 l/m 0 min 2 min 0 W/m 12,9 km/h (3 Bft) 97,56 %
01.11.2020 23:40 17,8 C 15,0 C 14,5 C 92 % 1008,6 hPa 0,2 l/m 0 min 2 min 0 W/m 6,4 km/h (2 Bft) 97,87 %
01.11.2020 23:42 17,8 C 15,0 C 14,5 C 92 % 1008,6 hPa 0,2 l/m 0 min 2 min 0 W/m 25,7 km/h (4 Bft) 97,92 %
01.11.2020 23:44 17,8 C 15,0 C 14,5 C 92 % 1008,7 hPa 0,2 l/m 0 min 2 min 0 W/m 16,1 km/h (3 Bft) 97,87 %
01.11.2020 23:46 17,7 C 15,0 C 14,5 C 92 % 1008,7 hPa 0,0 l/m 0 min 2 min 0 W/m 3,2 km/h (1 Bft) 95,74 %
01.11.2020 23:48 17,7 C 15,0 C 14,5 C 93 % 1008,7 hPa 0,0 l/m 0 min 2 min 0 W/m 6,4 km/h (2 Bft) 97,87 %
01.11.2020 23:50 17,6 C 15,6 C 14,5 C 93 % 1008,6 hPa 0,0 l/m 0 min 2 min 0 W/m 22,5 km/h (4 Bft) 97,92 %
01.11.2020 23:52 17,6 C 15,6 C 14,5 C 93 % 1008,7 hPa 0,0 l/m 0 min 2 min 0 W/m 19,3 km/h (3 Bft) 97,87 %
01.11.2020 23:54 17,6 C 15,6 C 14,5 C 93 % 1008,7 hPa 0,0 l/m 0 min 2 min 0 W/m 16,1 km/h (3 Bft) 97,87 %
01.11.2020 23:56 17,5 C 15,6 C 14,5 C 93 % 1008,6 hPa 0,0 l/m 0 min 2 min 0 W/m 22,5 km/h (4 Bft) 97,87 %
01.11.2020 23:58 17,5 C 15,6 C 14,5 C 93 % 1008,5 hPa 0,0 l/m 0 min 2 min 0 W/m 16,1 km/h (3 Bft) 97,83 %
_ Min-Zeit 08:12 05:16 03:50 11:32 22:58 - - - - 00:00 14:58
Minimum _ 11,5 C 10,6 C 9,5 C 82 % 1008,4 hPa - - - - 0,0 km/h (0 Bft) 50,00 %
_ Max-Zeit 16:30 15:10 15:12 00:00 01:48 23:34 09:48 06:36 10:50 15:30 00:00
Maximum _ 18,0 C 17,2 C 16,1 C 97 % 1015,7 hPa 0,2 l/m 2 min 2 min 198 W/m 45,1 km/h
SO (6 Bft)
100,00 %
Durchschnitt _ 15,0 C 14,4 C 13,2 C 91 % 1011,7 hPa #1,2 l/m #14 min. #1:20 h 69 W/m 12,3 km/h (3 Bft) 97,46 %
© 2020 W. Hausmann